GFSGBSN_850_temp_081.txt.gz
Temp
3 3 3 3 3 3 2 2 2 2 2 2 2 2 2 2 3 5 6 6 7 8 8 8 9 9 9 9 13 16 16 16 16 16 17 15 16 16 16 18 19 18 20 21 22 23 23
2 2 2 2 2 3 3 2 2 2 2 2 2 2 2 2 3 4 5 6 7 8 8 8 8 8 6 6 16 15 14 14 16 16 16 16 16 17 18 19 18 20 20 21 22 22 23
2 2 2 2 2 2 2 2 2 2 2 2 2 2 2 2 3 4 5 6 7 8 8 8 8 7 5 12 16 15 15 15 15 16 16 17 17 18 19 18 20 20 18 19 19 21 20
2 2 2 2 2 2 2 2 2 2 1 1 1 1 1 2 2 4 5 7 8 8 8 8 6 6 6 14 14 15 15 15 15 16 16 17 17 17 18 19 19 18 17 17 19 20 22
1 1 1 1 1 1 1 1 2 2 1 1 1 1 1 1 2 4 6 8 9 8 7 6 6 6 7 13 13 15 15 15 15 15 16 16 17 17 17 15 14 16 14 16 18 20 21
1 1 1 1 1 1 1 1 1 2 1 1 1 1 1 1 2 4 6 8 10 9 8 6 6 5 10 14 15 15 15 15 14 15 15 16 16 14 13 13 13 14 15 15 17 19 21
0 1 1 1 1 1 0 1 1 1 1 1 1 1 1 1 2 4 6 7 7 8 7 7 8 9 13 14 14 14 15 15 14 15 13 15 12 11 13 15 16 16 16 16 18 20 21
0 1 1 0 0 0 0 0 0 1 1 1 1 1 1 1 3 5 5 6 6 5 5 7 9 9 10 11 11 12 14 14 14 12 13 13 12 14 15 16 16 15 15 16 18 20 20
-0 0 0 0 -0 -0 0 -0 0 0 1 1 0 1 1 1 3 4 4 6 6 6 4 7 9 9 10 12 11 12 12 14 13 13 13 12 15 16 15 15 15 15 15 16 16 19 20
-0 -0 -0 -0 -0 -0 -0 -0 -0 0 1 1 1 0 1 1 3 4 5 5 5 6 4 10 12 13 13 13 13 14 14 14 13 13 13 13 15 15 14 14 14 13 15 15 14 12 12
-1 -1 -1 -1 -0 -0 -1 -1 -0 -0 0 0 0 0 0 0 1 3 4 4 5 5 5 14 14 14 14 13 14 14 14 14 12 13 14 13 13 13 12 13 14 13 13 13 11 11 12
-2 -1 -1 -1 -1 -1 -1 -1 -1 -0 -1 -0 0 -0 0 1 1 3 3 4 4 5 7 14 14 13 14 14 14 14 14 14 14 12 13 13 15 13 13 14 13 12 10 12 10 10 11
-2 -2 -2 -1 -1 -1 -1 -1 -1 -1 -1 -1 -0 -0 -0 0 1 2 3 3 5 6 14 14 14 15 14 15 15 15 13 12 11 10 10 13 13 13 12 10 11 9 9 10 10 10 11
-3 -2 -2 -2 -2 -1 -1 -1 -1 -1 -1 -1 -1 -0 0 0 1 2 1 3 5 11 12 16 15 15 14 16 16 15 13 11 11 12 11 10 10 13 12 11 12 10 8 10 11 11 13
-2 -2 -2 -2 -2 -2 -2 -2 -2 -1 -1 -1 -1 -1 -1 1 1 1 1 2 7 10 13 13 14 13 13 15 15 15 13 13 13 11 11 11 12 15 15 13 12 11 9 10 10 9 10
-2 -2 -2 -2 -2 -2 -2 -2 -2 -2 -1 -1 -1 -1 0 2 1 1 2 4 6 10 10 12 12 13 12 14 14 15 14 13 12 12 13 12 11 14 15 14 13 12 13 10 8 10 11
-2 -2 -2 -2 -2 -2 -2 -2 -2 -2 -2 -2 -2 -1 3 3 2 1 2 3 7 8 9 11 11 11 11 11 13 13 13 12 12 12 13 12 10 12 13 13 13 12 11 8 9 10 11
-2 -2 -2 -2 -2 -2 -2 -2 -2 -2 -2 -2 -2 -1 2 3 1 2 1 4 6 7 8 9 10 10 10 10 11 11 13 12 12 13 11 11 10 10 12 14 15 13 11 10 9 10 12
-3 -2 -3 -3 -2 -2 -2 -2 -2 -2 -2 -2 -1 0 2 0 0 2 3 5 5 6 7 9 9 10 11 10 9 11 11 12 12 11 10 11 10 9 11 13 14 12 12 11 9 10 9
-3 -3 -3 -3 -2 -2 -2 -2 -2 -2 -2 -2 -2 -4 2 1 -0 2 3 5 5 7 7 8 8 9 9 9 10 9 10 13 12 11 11 10 10 9 9 9 8 8 10 11 9 9 11
-3 -3 -3 -2 -2 -2 -2 -2 -2 -2 -2 -3 -2 -2 0 -0 1 2 3 3 3 4 8 9 8 8 8 8 8 8 10 11 12 12 10 9 8 10 9 11 12 9 11 8 9 9 9
-4 -3 -3 -3 -3 -2 -2 -2 -2 -2 -2 -3 -2 -1 2 1 2 1 3 3 4 6 7 6 7 8 8 7 8 8 8 8 9 9 8 10 8 10 10 12 12 12 12 11 9 9 10
-4 -3 -3 -3 -2 -2 -2 -2 -2 -2 -2 -3 -2 -0 -1 0 2 2 2 3 5 6 6 7 6 5 6 5 4 6 8 8 8 8 8 8 8 9 8 11 11 9 11 13 13 11 11
-4 -3 -3 -2 -2 -2 -1 -1 -1 -2 -2 -2 -2 -1 -0 -2 -0 2 4 5 5 5 5 7 5 3 5 6 7 8 8 8 7 7 8 7 8 8 6 8 8 12 15 15 14 15 15
-4 -3 -3 -2 -2 -1 -1 -1 -1 -1 -2 -3 -2 -1 -1 -4 1 2 3 4 6 6 5 6 6 6 6 5 4 4 5 6 7 7 7 7 7 5 6 7 10 12 15 15 15 14 15
-3 -3 -3 -2 -2 -1 -1 -1 -1 -1 -1 -2 -2 -1 -1 -1 -1 2 3 4 2 2 4 6 6 5 5 4 3 4 4 6 7 8 9 8 7 5 5 7 7 11 13 14 16 11 12
-3 -3 -2 -2 -2 -1 -1 -1 -1 -1 -1 -1 -2 -2 -2 -1 -0 1 0 1 3 2 2 5 3 4 4 2 3 2 4 8 6 7 6 6 5 6 5 6 7 12 12 14 11 9 10
-3 -3 -2 -2 -2 -1 -1 -1 -1 -1 -1 -1 -1 -2 -2 -1 -1 0 1 1 1 2 1 2 2 1 2 0 2 3 2 5 7 6 5 6 5 5 5 5 6 11 12 10 8 9 9
-3 -3 -2 -2 -2 -1 -1 -1 -1 -1 -1 -1 -2 -2 -2 -2 -0 -0 0 1 1 2 2 1 -0 1 3 3 3 3 2 3 6 5 7 5 7 6 7 6 7 7 8 7 7 7 7

GFSGBSN_850_temp_087.txt.gz
Temp
4 3 3 3 3 2 2 2 2 2 2 3 3 3 3 4 4 5 5 6 7 8 8 8 7 7 7 6 12 15 14 15 14 15 15 14 13 14 13 13 14 13 15 17 17 18 18
3 2 2 2 2 2 2 2 2 2 2 2 2 2 3 3 3 4 5 6 7 7 8 8 6 5 2 2 14 13 14 15 14 14 15 14 14 15 15 14 14 16 16 16 17 17 18
2 2 1 2 2 2 1 1 1 1 1 2 2 2 2 2 2 3 4 6 7 8 7 7 6 4 2 8 13 13 13 13 14 14 14 14 15 14 15 15 16 17 15 15 15 17 16
1 1 1 1 1 1 1 1 1 1 1 1 1 1 1 1 2 2 4 6 8 8 8 7 6 3 3 12 12 14 13 14 14 14 14 14 14 15 14 15 16 16 15 14 16 16 17
1 2 1 1 1 1 1 1 1 1 1 1 1 1 1 1 2 2 3 6 7 7 8 8 6 3 4 10 11 14 13 14 14 14 14 14 15 15 15 13 13 12 12 13 15 16 17
1 1 1 1 1 0 0 0 0 0 0 1 1 1 1 1 1 2 2 5 6 6 6 6 4 4 8 11 11 12 13 14 13 14 14 14 14 11 10 10 11 12 12 13 14 15 15
0 1 0 -0 0 0 0 0 0 0 0 0 0 1 1 1 1 1 2 4 4 5 4 5 5 5 8 9 10 12 12 13 13 14 11 13 10 9 11 12 13 14 13 13 13 15 14
1 1 1 0 0 -0 -1 -1 -0 -0 0 0 0 0 0 0 0 1 2 2 1 1 2 4 6 6 8 8 7 12 11 13 12 11 11 11 9 11 12 12 12 12 12 12 13 14 14
-0 -1 -1 -1 -1 -1 -1 -1 -0 -0 -0 -0 0 0 0 0 1 1 1 2 2 2 2 5 6 6 6 7 6 10 10 12 12 11 11 10 12 12 12 12 12 12 12 12 13 12 12
-2 -2 -1 -2 -2 -1 -1 -1 -1 -1 -1 -0 -0 -0 0 0 1 1 2 2 3 3 2 6 6 7 7 9 7 11 11 12 11 11 10 10 12 12 11 12 12 11 13 13 12 11 10
-2 -2 -2 -2 -2 -1 -1 -1 -1 -1 -1 -1 -1 -1 -0 -0 -0 0 1 2 3 3 2 10 10 11 9 10 13 10 11 12 10 11 11 11 12 11 11 12 12 11 11 11 10 9 9
-2 -2 -2 -1 -2 -1 -1 -1 -1 -1 -1 -1 -1 -1 -1 0 -0 0 0 2 3 3 4 9 11 10 10 11 13 12 11 12 12 11 11 11 12 13 12 10 12 10 10 10 10 9 8
-2 -2 -2 -2 -2 -1 -1 -1 -1 -2 -1 -1 -1 -1 -1 -1 -0 -0 -0 1 2 3 9 11 11 12 11 11 12 12 11 10 9 8 9 11 11 12 11 9 9 8 8 5 6 9 9
-2 -2 -2 -2 -2 -2 -2 -1 -2 -2 -1 -1 -1 -1 -1 0 0 -0 -1 1 2 6 8 10 10 9 10 12 12 12 10 10 10 10 8 8 10 10 11 11 10 8 8 6 8 9 9
-3 -3 -3 -2 -2 -2 -2 -2 -2 -2 -2 -2 -2 -1 -0 1 0 -1 -1 1 4 6 6 7 8 11 11 11 11 12 11 10 10 10 11 9 10 11 10 10 10 8 7 9 7 8 8
-3 -3 -3 -2 -2 -2 -2 -2 -2 -2 -2 -2 -2 -2 -0 -1 -1 -1 -2 1 4 7 6 7 6 9 8 9 10 11 11 10 10 10 11 11 10 12 11 11 11 9 9 7 8 8 9
-3 -3 -3 -2 -2 -2 -2 -2 -2 -2 -2 -2 -2 -3 -1 0 -1 -1 -3 1 4 6 6 5 4 7 9 8 9 10 10 10 11 10 10 10 10 10 11 10 9 8 7 7 8 8 10
-3 -3 -3 -2 -2 -2 -2 -2 -2 -2 -2 -2 -3 -3 -0 -1 -1 -1 -2 3 4 5 6 6 5 7 7 8 8 9 9 10 11 11 10 9 8 8 9 11 11 10 9 8 8 9 9
-3 -3 -3 -2 -3 -3 -2 -2 -2 -2 -2 -3 -3 -2 -1 -2 -1 -3 1 2 3 4 5 5 5 6 7 7 7 8 9 10 11 10 10 10 7 8 9 10 9 8 9 9 8 8 8
-3 -3 -3 -3 -3 -3 -2 -2 -2 -2 -2 -3 -3 -2 -1 -1 -1 -1 0 2 3 5 5 6 6 7 6 7 7 7 8 9 10 9 9 9 8 8 6 7 8 8 9 9 9 8 8
-4 -4 -3 -3 -3 -3 -3 -2 -2 -2 -2 -3 -3 -4 -2 -2 -1 -1 -1 1 2 3 4 5 6 5 5 5 6 5 6 8 9 8 8 7 7 8 8 8 8 8 9 10 8 8 8
-4 -4 -4 -4 -3 -3 -3 -2 -2 -2 -2 -3 -2 -3 -2 -2 -1 -0 -1 1 1 2 4 4 4 5 4 5 5 4 4 5 6 7 7 6 7 6 7 8 8 8 9 10 10 9 8
-4 -4 -4 -3 -3 -3 -2 -2 -2 -2 -2 -3 -3 -2 -3 -1 -1 -1 -0 -0 -0 1 3 4 4 4 4 4 5 5 5 5 5 6 6 6 6 5 6 6 7 7 9 10 10 9 9
-4 -4 -3 -3 -4 -3 -2 -2 -2 -2 -2 -2 -3 -3 -3 -3 -2 -0 1 1 2 2 2 3 4 4 5 5 5 5 5 5 5 5 6 5 5 4 4 6 5 9 10 12 11 11 10
-4 -3 -3 -4 -4 -3 -2 -2 -2 -1 -2 -1 -2 -3 -2 -4 -2 -1 0 1 1 2 2 4 4 4 5 5 4 4 4 5 6 5 4 5 4 3 4 5 7 8 10 9 9 9 10
-4 -3 -4 -4 -4 -3 -3 -2 -2 -2 -1 -1 -1 -3 -2 -2 -3 -0 -0 0 -1 -1 1 2 3 4 4 1 2 3 4 5 6 6 5 4 4 4 2 4 4 7 9 9 10 9 7
-3 -3 -4 -4 -4 -3 -3 -2 -2 -2 -2 -1 -1 -2 -3 -3 -1 -1 -1 -0 0 -0 -1 0 0 2 2 1 1 2 3 5 5 6 6 3 3 4 3 4 5 8 6 9 8 7 6
-3 -4 -4 -4 -3 -3 -3 -2 -2 -2 -1 -1 -1 -1 -2 -3 -2 -1 -1 -0 0 0 -1 0 -0 -1 1 1 1 2 1 4 4 5 6 4 3 2 3 4 4 6 7 8 5 4 4
-4 -4 -4 -4 -3 -3 -3 -2 -2 -2 -2 -1 -1 -1 -2 -2 -1 -2 -1 -0 0 0 -0 0 -1 -1 0 1 1 2 1 -1 2 3 4 2 4 5 5 4 5 4 4 4 4 3 3

GFSGBSN_850_temp_093.txt.gz
Temp
5 5 5 5 4 4 5 5 5 5 6 6 6 7 6 7 7 7 7 8 8 8 8 7 7 6 4 4 7 13 12 13 12 12 12 12 12 12 13 13 13 13 15 14 15 16 15
5 4 4 4 4 4 5 5 5 4 5 5 6 6 6 6 7 7 7 7 8 8 7 7 7 5 2 1 11 11 12 11 11 11 12 11 12 13 13 14 14 14 14 16 16 16 15
3 2 2 2 3 4 5 4 5 5 5 6 6 6 6 6 6 6 7 7 8 8 8 8 7 5 2 6 11 11 10 12 12 10 10 12 12 13 13 14 14 14 14 15 15 16 16
3 3 3 3 3 2 3 4 5 5 5 5 5 5 5 5 6 6 6 7 8 7 7 6 6 4 2 8 9 10 11 11 12 11 11 12 11 12 12 13 14 15 14 14 15 16 16
3 3 4 4 3 3 3 4 4 4 3 3 3 3 3 4 4 4 5 5 6 6 4 4 5 3 3 7 8 8 9 10 11 12 11 11 11 12 12 13 13 12 14 13 15 16 17
1 1 2 3 3 3 3 3 2 3 2 2 2 2 2 2 3 2 3 4 5 4 3 4 3 2 5 7 7 8 8 9 9 10 10 10 11 12 11 12 12 13 13 13 15 16 15
1 2 2 3 2 1 2 2 1 2 1 1 1 1 1 1 2 1 2 3 1 2 3 0 2 3 5 9 6 9 8 8 9 10 10 11 11 11 12 13 13 14 14 14 14 15 15
1 1 1 0 0 2 2 1 -0 0 -1 0 0 1 1 0 1 1 1 1 -1 -2 -1 1 2 2 4 5 5 7 9 8 10 10 11 10 11 12 12 12 13 13 13 14 14 14 14
0 1 1 1 2 1 1 1 -0 -0 -1 -0 -0 -0 -0 -0 1 1 1 0 0 -1 -1 2 4 3 3 3 3 5 8 9 11 10 10 12 12 12 12 11 12 12 13 12 14 14 14
-2 1 0 0 1 1 0 -0 -1 -1 -1 -1 -1 -0 -0 -0 1 0 0 0 1 -0 1 5 5 6 5 5 4 5 8 10 11 11 9 9 12 11 11 12 12 11 12 13 13 13 13
-2 -2 -2 -0 -0 -1 -1 -1 -1 -1 -1 -1 -1 -0 -0 -1 -1 -1 -1 1 1 1 2 8 8 6 6 6 7 7 7 10 11 10 11 11 10 11 10 12 12 13 12 13 12 12 11
-2 -2 -2 -1 -2 -2 -1 -2 -1 -1 -1 -1 -1 -0 -0 -1 -0 -0 -0 1 1 2 2 6 8 6 6 8 8 7 7 9 11 10 11 11 11 11 12 10 12 11 11 10 10 10 10
-2 -2 -2 -2 -3 -2 -2 -2 -1 -1 -1 -1 -0 0 -0 -1 -1 -0 0 1 1 1 6 6 5 7 5 7 9 8 8 8 10 9 9 10 11 11 10 10 10 11 11 10 10 10 12
-3 -3 -3 -3 -3 -3 -2 -2 -1 -1 -1 -1 -0 0 -0 -1 -1 -1 0 0 0 4 4 5 5 5 4 9 10 10 8 9 9 9 9 10 9 11 11 11 11 10 12 11 11 11 11
-3 -3 -3 -3 -3 -2 -2 -2 -2 -1 -1 -1 -0 1 -0 -0 -0 -1 -1 -1 2 3 2 3 4 6 5 8 8 10 9 10 10 10 10 9 10 10 10 10 12 10 10 10 10 8 9
-3 -3 -3 -3 -3 -2 -2 -2 -2 -1 -1 -1 -0 -0 -0 -1 -1 -2 -2 0 1 3 3 3 3 3 4 5 8 10 10 9 10 10 10 10 9 10 9 11 10 11 10 10 8 9 9
-3 -3 -3 -3 -3 -3 -2 -2 -2 -2 -1 -1 -1 -1 -1 -2 -2 -2 -2 -1 1 2 3 2 1 1 3 4 5 7 8 9 9 10 10 10 11 9 10 11 10 10 10 9 10 9 10
-3 -4 -4 -3 -3 -3 -2 -2 -2 -2 -1 -1 -2 -4 -1 -2 -2 -2 -1 -1 1 2 2 4 2 1 3 3 4 5 6 7 8 9 9 9 9 9 9 9 10 10 9 10 10 8 9
-3 -4 -3 -3 -3 -3 -3 -3 -2 -2 -2 -2 -3 -3 -1 -2 -3 -2 0 0 1 2 2 4 4 2 2 3 4 5 5 7 8 8 8 9 8 8 8 10 10 10 10 10 8 7 8
-3 -3 -4 -3 -3 -3 -3 -3 -2 -2 -2 -2 -3 -5 -2 -2 -2 -2 -1 0 -0 1 2 3 3 1 2 3 4 4 4 7 7 7 7 8 8 9 9 8 9 9 9 10 9 8 9
-3 -4 -3 -4 -3 -4 -3 -3 -2 -2 -2 -3 -3 -5 -4 -4 -3 -2 -1 -1 -1 -0 1 1 2 3 3 3 4 4 5 6 7 7 8 8 7 8 8 8 8 9 9 9 9 9 8
-4 -4 -4 -4 -4 -4 -3 -3 -3 -2 -2 -2 -2 -3 -3 -3 -2 -2 -0 -1 -1 0 1 2 2 2 4 3 3 3 4 5 5 7 7 7 7 7 8 8 8 8 9 8 8 9 9
-4 -4 -4 -4 -4 -3 -3 -3 -3 -3 -2 -2 -2 -3 -3 -2 -2 -2 -1 -0 -0 1 1 2 3 3 4 3 2 3 3 3 4 5 6 6 7 7 7 7 7 8 8 9 9 9 10
-4 -4 -4 -4 -4 -4 -3 -3 -2 -2 -2 -2 -2 -3 -3 -3 -2 -1 -1 -1 -0 1 1 2 2 2 3 3 4 4 3 3 4 5 5 6 6 6 6 6 6 8 9 9 9 10 8
-4 -4 -4 -4 -4 -3 -3 -3 -3 -2 -2 -2 -2 -3 -3 -4 -2 -1 -1 -0 -0 0 1 2 2 1 2 2 4 5 5 6 5 4 4 5 5 5 6 6 7 8 8 8 8 9 6
-4 -5 -4 -4 -3 -3 -4 -3 -3 -3 -2 -2 -2 -2 -3 -3 -2 -2 -1 -1 -0 -0 0 1 2 2 2 2 3 4 4 5 6 5 4 4 5 6 5 5 5 7 7 7 7 9 5
-4 -5 -4 -4 -3 -4 -4 -4 -3 -3 -2 -2 -1 -2 -2 -3 -1 -1 -1 -1 -1 -1 -1 -0 0 1 1 1 3 3 4 4 5 5 5 4 4 4 4 5 6 4 5 6 7 6 4
-5 -5 -5 -4 -3 -3 -4 -3 -3 -3 -2 -2 -2 -2 -2 -2 -1 -1 -0 -1 -1 -1 -1 0 0 -0 1 2 2 3 3 3 4 4 4 5 4 3 4 4 4 3 6 6 4 2 2
-5 -5 -4 -4 -3 -3 -4 -3 -3 -3 -2 -2 -2 -2 -2 -2 -2 -1 -1 -0 -1 -0 -1 -1 -1 -1 -0 1 1 1 3 2 2 4 4 4 3 3 4 4 1 0 0 -1 0 -1 -0

GFSGBSN_850_temp_096.txt.gz
Temp
7 7 7 7 7 7 7 7 7 7 7 7 7 8 8 8 8 8 8 9 9 8 8 8 8 7 5 5 8 11 11 11 11 10 11 13 14 14 17 18 18 18 19 19 19 19 20
5 6 6 6 7 7 7 6 6 5 7 7 7 8 8 8 7 7 8 8 8 8 8 8 7 6 2 5 10 11 11 11 11 10 11 12 14 15 16 18 18 19 18 19 19 19 19
5 5 5 6 6 6 6 5 5 5 6 7 7 7 7 7 7 7 7 7 7 7 8 8 7 6 2 7 10 10 10 9 9 9 11 12 13 14 15 16 16 17 17 18 19 19 19
5 5 5 5 5 5 4 5 4 6 7 7 7 6 6 6 6 6 6 7 7 7 7 7 5 3 4 7 8 9 9 8 8 9 8 10 10 12 15 16 16 17 18 17 20 20 19
4 4 5 5 5 5 4 4 6 6 6 6 6 5 5 6 5 5 6 6 6 6 5 4 4 3 7 6 6 7 8 8 8 8 8 9 10 12 14 15 16 17 17 18 19 20 20
3 3 4 5 4 3 4 5 6 6 5 5 4 4 4 5 5 5 5 5 5 4 3 4 3 3 6 8 8 7 8 7 8 9 8 9 11 14 15 15 15 17 17 18 17 20 19
3 2 3 4 2 4 5 5 5 5 4 3 3 3 3 3 4 3 3 3 4 5 2 3 5 7 7 8 7 8 8 8 9 10 12 12 12 13 15 16 17 17 17 17 19 19 18
1 1 3 2 4 5 5 5 4 3 3 3 2 2 2 2 2 2 1 2 -1 -2 -0 2 3 3 4 4 3 6 8 9 11 12 14 13 13 15 16 16 14 12 13 16 18 18 18
1 2 2 2 4 4 4 4 3 3 2 2 2 1 1 2 2 0 0 0 -1 -1 1 4 5 5 6 5 5 5 7 9 11 12 13 13 15 15 14 14 12 13 15 16 16 18 18
-0 2 2 3 3 3 4 2 2 1 1 2 2 1 1 1 0 -0 1 0 -1 -1 2 8 8 6 4 5 7 7 7 9 12 12 13 13 15 13 12 13 13 14 16 16 15 15 16
-1 -0 1 2 2 3 2 1 1 0 1 1 1 1 1 1 -0 0 -0 0 0 -0 4 10 9 6 6 5 6 9 8 9 13 13 12 12 12 12 12 13 15 14 16 15 15 16 16
-2 -2 -2 0 0 1 0 -1 -0 0 1 1 1 1 1 -1 -1 -1 0 1 -0 2 4 8 9 8 9 8 9 9 7 9 12 14 13 13 13 13 14 14 15 15 14 15 15 15 14
-2 -2 -2 -2 -1 -1 -1 -1 -1 -0 1 1 1 1 1 1 -0 1 1 0 4 4 9 7 6 8 8 7 6 10 9 10 12 11 11 13 13 13 13 11 13 14 14 12 13 13 14
-3 -3 -3 -2 -2 -3 -2 -1 -1 -0 0 1 1 1 1 0 0 0 -0 4 3 6 6 5 6 7 5 4 8 10 10 11 13 14 13 12 10 12 13 13 13 13 14 15 13 14 16
-3 -2 -2 -3 -2 -2 -2 -2 -1 -0 -0 1 1 1 0 -0 -0 -0 1 3 4 5 5 4 6 5 5 4 4 11 11 12 13 13 12 12 12 14 13 13 14 13 13 14 13 12 13
-2 -3 -3 -3 -3 -2 -2 -2 -1 -1 -0 0 0 0 -1 -0 -0 -1 2 2 4 5 5 5 3 4 2 5 5 8 12 13 12 13 13 13 11 12 12 14 13 14 15 13 13 12 13
-3 -3 -3 -3 -3 -2 -2 -2 -1 -1 -0 0 -1 1 -0 0 -1 0 2 3 3 3 4 3 2 2 3 3 4 6 7 11 11 13 13 13 13 11 12 13 13 13 13 13 14 13 13
-3 -3 -4 -3 -3 -3 -2 -2 -2 -1 -1 0 -1 2 0 0 2 2 3 3 2 3 4 4 4 3 2 2 4 5 6 8 10 12 12 11 12 11 12 12 15 15 14 14 13 11 12
-3 -3 -4 -3 -3 -3 -3 -2 -2 -2 -1 -1 -1 0 -0 -1 1 2 3 4 3 3 4 4 4 3 1 2 4 4 5 7 8 10 10 11 11 10 10 12 13 13 13 13 12 12 11
-3 -3 -4 -3 -3 -3 -3 -3 -2 -2 -2 -1 -1 1 1 -1 -1 1 1 3 2 3 3 2 2 2 3 3 4 4 5 6 6 8 8 10 11 12 12 12 13 11 12 13 13 12 12
-3 -3 -3 -3 -3 -3 -3 -3 -3 -2 -2 -2 -2 -0 -1 1 2 1 1 1 1 1 3 3 4 4 4 4 5 4 4 6 6 5 7 10 10 11 11 12 12 12 12 12 12 12 11
-3 -3 -3 -3 -3 -3 -4 -3 -3 -2 -2 -2 -2 1 -1 0 1 2 2 2 1 2 2 4 4 5 6 4 3 4 4 4 6 7 6 7 8 11 10 11 11 11 12 12 12 12 12
-3 -3 -4 -4 -4 -4 -3 -3 -3 -3 -2 -2 -2 -2 -2 1 2 2 3 2 2 3 3 4 5 5 6 4 3 4 4 5 6 6 7 9 9 10 10 10 10 10 10 12 12 12 12
-3 -3 -4 -4 -4 -4 -3 -3 -3 -2 -2 -2 -2 -2 -1 1 2 3 2 2 3 3 3 4 4 4 5 3 5 6 5 6 7 8 7 9 9 9 9 9 9 10 12 11 11 11 11
-4 -4 -4 -4 -4 -3 -3 -3 -3 -2 -2 -2 -2 -2 -2 1 2 3 2 2 3 3 4 3 3 3 2 4 7 8 8 8 8 8 8 9 9 8 8 9 10 10 9 9 9 10 8
-4 -4 -4 -4 -4 -3 -3 -3 -3 -3 -2 -2 -2 -2 -2 -0 3 1 2 2 3 3 4 4 3 2 3 6 7 6 7 7 8 8 8 8 8 9 8 8 8 8 9 9 10 10 5
-4 -4 -4 -4 -4 -3 -3 -4 -3 -3 -3 -2 -2 -2 -3 -1 1 -0 2 2 1 3 3 3 2 3 3 5 6 6 7 7 7 7 7 7 7 7 6 7 8 5 8 9 9 6 4
-4 -3 -4 -4 -4 -4 -3 -4 -3 -3 -3 -2 -2 -2 -2 -2 0 -1 -0 1 2 2 2 2 4 3 4 4 5 5 5 6 6 6 6 7 7 7 7 7 6 1 7 6 2 1 1
-4 -4 -4 -4 -4 -3 -3 -3 -3 -3 -3 -3 -2 -2 -2 -2 -2 -1 -1 -1 -1 -0 0 1 1 1 2 4 4 3 3 4 4 6 7 5 4 4 3 3 -0 -1 -2 -2 -2 -2 -1

GFSGBSN_850_temp_102.txt.gz
Temp
6 7 8 8 8 8 8 8 8 8 8 8 8 9 9 10 10 11 10 10 10 10 10 9 9 8 8 8 11 13 13 13 13 12 12 13 15 17 17 18 19 20 22 22 22 23 23
5 6 7 7 7 8 7 8 8 8 8 8 9 9 9 10 10 10 10 10 10 9 9 10 9 9 6 8 13 13 13 13 13 13 14 14 14 16 17 19 19 20 21 22 22 23 23
3 4 5 6 7 7 8 7 7 8 8 8 8 9 10 10 10 9 9 10 10 10 10 10 9 8 5 8 11 12 11 12 13 13 13 14 15 15 16 17 18 19 19 21 22 23 23
2 3 4 5 6 7 7 7 7 7 8 8 9 9 9 9 8 9 9 10 10 10 9 9 9 6 6 9 10 10 11 12 12 12 12 13 13 15 16 16 17 18 19 18 21 22 23
3 2 3 5 6 7 7 7 7 7 8 8 9 9 8 8 8 8 9 9 9 9 7 7 6 4 7 10 9 11 11 11 11 12 12 12 13 13 15 16 16 17 17 18 19 22 22
2 3 2 3 6 7 7 7 7 7 8 8 8 8 8 8 7 8 8 9 8 8 8 7 6 7 9 10 12 11 10 11 12 12 12 13 13 13 14 15 14 15 17 18 19 21 21
2 3 2 2 5 6 6 7 7 7 7 7 7 8 8 7 7 7 7 6 6 8 6 6 8 9 8 8 8 9 9 10 11 11 12 13 12 12 13 14 15 17 17 18 20 18 18
1 2 1 1 4 5 6 6 6 6 6 7 7 7 6 6 7 6 5 5 5 3 4 6 6 7 7 8 8 9 10 10 10 10 12 12 9 12 14 15 15 16 17 17 15 16 17
1 2 0 1 4 5 5 6 6 6 6 6 7 6 6 6 6 5 5 5 4 3 4 6 8 10 9 8 7 10 10 11 10 10 10 11 12 13 14 14 15 16 16 14 15 15 10
1 0 -0 -0 3 4 5 5 6 6 6 6 6 5 6 6 5 4 6 4 3 3 4 11 11 9 8 9 11 11 10 11 10 10 11 12 14 12 14 14 16 16 18 16 15 10 10
0 -0 -0 0 3 4 4 4 5 5 5 5 5 5 5 5 4 5 4 3 3 3 6 12 12 10 10 10 11 11 9 8 9 11 11 11 13 13 14 15 17 16 18 16 15 12 10
-0 -1 -1 1 2 3 4 4 4 4 4 4 5 5 5 3 4 4 4 2 3 4 7 10 11 10 10 10 10 8 8 9 9 11 12 12 14 11 15 16 17 18 13 13 13 12 9
-1 -1 -1 -1 2 2 2 3 3 4 4 4 4 5 4 3 4 4 3 4 6 7 10 9 8 9 9 8 7 8 6 6 6 9 10 12 11 12 16 15 16 15 13 11 10 9 11
-1 -1 -1 -1 0 0 2 2 2 3 3 4 4 4 3 3 4 4 3 6 7 9 8 9 9 9 7 5 5 5 6 9 12 12 12 11 8 9 14 16 14 14 14 12 11 12 13
-1 -1 -1 -2 -1 -0 0 1 1 3 3 3 3 3 3 3 4 3 5 8 7 8 8 8 8 6 5 7 5 5 9 10 13 13 10 8 7 13 16 16 15 14 13 14 9 12 11
-1 -1 -2 -2 -1 -2 -1 -0 1 2 3 3 3 4 5 4 4 3 7 8 8 9 8 8 6 6 5 5 4 7 7 15 14 13 10 9 8 14 14 15 15 14 14 9 8 10 11
-2 -2 -2 -2 -2 -2 -1 -1 0 2 3 3 3 6 3 4 3 6 5 7 8 9 8 7 6 5 5 4 4 4 6 9 10 11 12 10 10 12 12 8 11 12 9 10 11 13 11
-2 -2 -2 -2 -2 -2 -2 -1 0 1 2 3 4 6 3 4 5 7 8 8 8 8 8 8 8 6 4 3 4 4 4 5 5 12 10 14 12 11 12 11 13 13 12 12 10 14 12
-2 -2 -2 -2 -3 -2 -2 -2 -0 1 2 2 5 6 3 4 5 6 8 8 8 8 8 7 7 7 4 3 4 4 4 4 8 10 8 10 12 8 11 13 10 12 13 15 14 10 13
-2 -2 -3 -3 -3 -3 -2 -2 -0 1 2 3 5 4 6 5 4 6 6 7 7 8 8 7 8 7 8 5 7 5 4 4 8 8 7 10 10 9 10 12 10 9 9 11 13 9 12
-2 -2 -3 -3 -2 -3 -3 -2 -1 0 1 2 3 3 5 5 6 6 7 6 6 6 8 8 8 9 8 5 6 5 6 6 8 7 7 7 6 8 10 12 13 10 9 10 14 14 8
-2 -2 -3 -3 -3 -3 -3 -3 -1 -0 0 1 2 5 5 6 6 7 5 6 6 7 8 8 7 8 8 7 6 5 6 7 6 6 5 7 6 5 7 13 10 10 13 13 14 14 14
-3 -2 -3 -3 -3 -3 -3 -3 -2 -1 -0 1 2 2 4 6 8 7 7 7 7 7 7 8 8 8 7 7 6 7 8 8 7 6 6 7 9 8 10 13 12 10 13 13 11 11 10
-2 -3 -3 -3 -3 -3 -3 -3 -2 -1 -1 -0 1 1 3 4 7 7 7 7 7 7 7 7 8 7 7 6 7 10 9 10 10 10 10 8 9 10 10 10 8 10 12 10 9 9 9
-3 -2 -3 -3 -3 -3 -3 -3 -2 -2 -1 -1 0 0 2 3 6 7 6 7 7 8 8 8 8 6 6 7 9 8 9 7 10 11 11 11 9 10 10 10 9 10 8 7 7 4 6
-3 -3 -3 -3 -3 -3 -3 -3 -3 -2 -1 -2 -1 -1 0 2 4 5 6 6 6 6 7 7 7 6 6 8 8 7 8 9 9 10 12 11 11 10 11 10 8 5 6 7 9 4 4
-2 -3 -3 -3 -3 -3 -3 -3 -3 -2 -2 -1 -1 -0 -1 0 3 4 5 4 5 5 6 6 5 6 6 6 7 7 5 10 7 9 8 8 8 8 10 9 5 3 5 6 8 2 2
-3 -3 -3 -3 -4 -3 -3 -3 -3 -2 -2 -2 -1 -1 -1 -0 2 2 3 3 4 4 4 4 5 5 4 5 6 6 6 8 7 8 8 6 6 6 7 7 5 1 5 3 -0 -1 -0
-3 -3 -3 -3 -4 -3 -3 -3 -3 -2 -2 -2 -2 -2 -1 -2 -0 1 1 1 1 2 2 3 4 4 4 4 4 4 4 6 7 5 8 5 5 5 3 2 0 -0 -0 -2 -1 -2 -1

GFSGBSN_850_temp_105.txt.gz
Temp
6 6 7 7 7 7 8 8 8 8 9 9 9 9 9 9 10 10 11 11 11 11 12 11 11 10 9 6 12 14 13 13 13 13 12 12 12 13 13 14 15 15 16 18 19 19 20
6 6 7 7 7 6 7 7 7 8 8 8 8 9 9 10 10 10 11 11 11 11 11 11 10 9 6 4 14 13 12 11 12 12 12 12 12 13 13 14 14 16 17 17 18 19 20
6 7 7 7 8 7 7 7 7 7 8 8 9 9 9 9 10 10 11 11 11 11 10 9 9 7 4 10 11 11 11 12 12 12 12 13 13 13 14 13 15 16 15 16 17 18 18
7 6 6 7 7 7 7 7 7 7 8 8 8 9 9 9 10 10 11 12 12 10 9 8 8 6 4 10 9 10 10 11 11 11 11 12 12 12 12 13 13 13 14 13 16 17 18
5 5 6 6 7 6 6 6 7 7 7 8 8 8 8 9 9 10 10 10 11 9 8 8 7 5 5 9 10 10 9 9 10 10 11 12 12 12 12 10 10 11 11 12 15 17 18
4 4 5 5 6 6 5 6 7 7 7 8 8 8 8 9 9 9 8 9 10 9 8 7 6 5 8 8 9 9 10 9 9 10 10 11 11 10 10 9 7 10 11 12 13 15 17
3 4 3 4 5 6 5 5 6 7 7 8 8 8 8 8 8 7 7 7 6 7 7 4 6 6 7 8 8 9 10 9 9 9 8 10 8 9 8 10 10 11 11 12 14 16 15
3 2 2 3 3 5 4 5 6 6 7 7 7 8 8 8 7 6 5 5 4 3 3 6 6 6 7 8 9 10 10 8 10 8 9 7 7 9 11 11 10 10 11 11 14 16 11
2 2 2 2 3 4 4 4 5 6 7 7 7 7 7 7 6 6 5 5 4 3 2 5 9 10 9 9 9 9 10 10 9 6 8 7 7 10 11 11 9 10 11 12 12 11 10
2 1 1 2 3 3 4 4 5 6 7 7 7 7 7 7 6 5 5 4 3 3 1 10 11 10 10 10 9 10 10 8 8 8 8 7 9 9 10 9 8 10 12 13 14 10 9
1 1 1 1 3 3 3 4 4 6 6 6 7 6 5 5 5 4 4 4 3 3 5 10 10 10 10 10 9 9 8 8 7 7 8 6 9 9 10 12 11 10 13 13 14 8 9
1 1 1 2 2 2 2 3 4 5 5 6 5 5 5 4 4 4 4 4 3 3 5 9 10 9 9 9 8 7 8 7 7 7 8 6 10 10 10 11 11 11 11 10 9 10 7
0 0 1 2 2 1 2 3 4 5 5 5 4 5 4 4 5 5 5 4 3 4 9 8 7 9 8 7 7 7 7 7 6 6 6 9 10 12 11 8 9 12 11 6 8 7 8
0 -0 0 -0 -1 1 3 3 4 4 5 4 4 4 4 4 5 4 4 3 5 8 7 8 8 8 6 7 6 6 8 6 7 7 7 8 7 10 11 10 9 10 10 7 9 8 10
-0 -1 -1 -1 -1 -1 3 3 3 4 4 3 3 3 4 4 5 5 4 1 6 7 8 7 7 6 5 6 5 5 7 6 9 8 8 6 7 8 10 11 11 11 10 11 9 9 8
-1 -1 -1 -1 -2 -1 1 2 3 3 3 3 3 3 4 4 5 5 2 6 7 8 8 8 4 5 3 4 4 5 6 8 6 6 6 6 5 9 12 13 14 12 12 8 7 9 10
-1 -1 -1 -2 -2 -2 -1 -1 2 2 2 3 3 4 5 5 5 5 0 6 8 9 8 7 5 5 5 4 3 4 5 6 6 5 5 6 5 9 12 9 11 11 8 9 9 9 9
-1 -1 -1 -2 -2 -2 -2 -0 1 1 2 2 4 1 4 5 3 5 0 7 8 8 8 7 6 6 4 3 3 2 3 4 4 5 6 8 8 9 10 10 11 10 10 9 9 9 8
-1 -1 -2 -2 -2 -2 -2 -1 0 1 2 2 3 4 4 4 -1 -1 6 8 8 7 7 7 6 6 4 3 2 3 3 6 6 6 6 7 9 8 8 9 6 8 11 10 10 9 9
-1 -2 -2 -2 -2 -2 -2 -1 -0 1 2 2 4 0 4 4 5 4 5 6 5 7 8 7 7 7 5 3 5 3 4 6 6 7 7 7 8 7 7 7 9 9 10 9 8 8 8
-1 -2 -2 -2 -3 -2 -2 -1 -0 1 1 1 3 0 4 -1 1 5 5 6 5 4 7 8 7 6 5 3 3 3 5 5 7 7 6 5 6 5 7 8 8 7 7 7 9 9 8
-2 -2 -2 -2 -2 -2 -2 -1 -0 0 1 2 3 3 5 5 6 5 5 5 6 6 6 6 5 6 6 5 4 3 5 4 4 5 5 6 5 5 7 5 7 6 6 9 7 7 7
-2 -2 -2 -2 -2 -2 -3 -2 -1 -0 1 1 2 3 3 4 5 3 4 6 6 6 7 7 6 6 5 5 5 6 6 6 5 6 6 6 5 6 6 10 10 6 7 7 6 7 7
-2 -2 -3 -2 -2 -3 -3 -2 -1 -1 -0 0 1 2 3 -1 2 6 6 6 6 6 5 7 7 5 6 6 6 8 8 6 6 8 8 7 7 7 8 9 7 4 6 6 4 4 6
-2 -2 -2 -2 -2 -3 -3 -3 -2 -1 -1 -1 0 1 1 -2 4 5 6 6 6 6 5 6 5 5 6 6 5 7 6 7 9 9 10 9 8 6 7 6 7 7 5 4 5 3 3
-2 -2 -3 -3 -3 -3 -3 -3 -2 -1 -1 -0 -0 0 1 1 1 3 5 4 2 2 2 5 5 5 5 4 4 6 6 7 6 7 10 9 8 7 7 7 6 4 3 3 5 2 1
-2 -2 -2 -3 -3 -3 -3 -3 -3 -2 -1 -1 -1 -0 0 1 2 3 2 2 4 3 1 3 3 4 5 0 3 4 4 8 5 6 6 5 4 5 5 5 4 1 2 3 5 1 0
-2 -2 -3 -3 -3 -3 -3 -3 -3 -2 -1 -1 -1 -1 -1 -0 1 1 2 2 2 3 -1 3 1 2 0 1 2 2 3 4 5 6 6 4 4 2 4 4 3 0 2 2 -0 -1 -1
-2 -2 -3 -3 -3 -3 -3 -3 -2 -2 -2 -2 -1 -1 -1 -0 0 1 2 2 2 2 1 2 2 3 2 -1 0 1 1 2 4 4 6 3 4 2 2 1 -0 -1 -1 -1 -1 -1 -1

GFSGBSN_850_temp_108.txt.gz
Temp
9 9 9 9 9 9 9 9 10 9 9 9 9 9 9 10 10 10 11 11 11 11 11 11 10 10 8 10 13 12 11 11 12 11 11 12 11 11 9 11 12 12 13 15 15 16 16
9 9 9 9 9 9 9 9 10 10 9 9 9 9 9 10 10 10 11 11 11 11 11 9 7 8 8 5 12 11 10 10 11 10 10 10 11 12 11 10 10 13 13 14 15 15 16
9 8 8 8 9 8 9 9 9 10 9 9 9 9 9 10 10 10 11 11 10 11 11 9 8 7 5 10 10 10 9 9 9 9 9 10 11 11 12 10 12 12 11 13 14 15 15
9 8 8 7 7 8 8 9 9 9 9 9 9 9 9 9 10 10 10 11 10 11 10 8 8 6 6 9 9 9 9 10 10 10 10 10 10 11 10 11 11 10 10 9 13 14 15
8 8 8 7 6 7 7 7 8 8 8 8 8 8 9 9 9 10 10 11 10 11 9 8 7 5 6 9 9 10 10 10 9 10 10 10 10 11 10 9 8 9 7 9 10 13 13
8 7 8 7 6 6 7 7 7 8 8 8 8 8 8 9 9 9 9 10 10 9 8 7 5 5 9 9 9 10 10 10 9 9 9 9 10 8 7 7 6 7 8 8 9 12 12
8 6 5 5 4 5 6 6 7 7 8 8 8 8 8 8 8 7 8 9 8 8 7 6 6 6 10 10 9 9 9 9 9 9 7 8 6 5 7 8 9 8 8 8 9 11 12
9 5 5 5 3 4 4 5 6 7 7 7 7 7 8 7 7 6 5 5 3 3 3 8 9 7 9 9 6 8 9 9 9 7 5 6 6 7 8 7 8 8 8 7 9 11 11
8 6 4 3 3 3 4 5 6 6 7 7 7 7 7 7 6 5 4 4 3 3 2 7 9 8 9 9 9 9 9 8 8 7 7 5 7 9 8 8 7 8 8 8 7 10 12
7 5 4 2 2 2 3 5 6 7 6 6 6 7 7 7 6 5 5 4 4 3 1 8 9 9 9 9 8 9 8 7 7 7 7 6 8 8 8 7 7 6 9 7 7 8 8
6 5 3 2 2 2 3 4 5 6 6 6 6 6 6 6 5 5 5 4 4 3 5 9 10 9 9 8 8 8 8 7 6 7 7 6 7 7 7 8 9 8 10 7 9 9 9
5 4 3 2 1 2 3 4 5 6 6 6 6 6 5 5 5 5 4 4 4 3 6 8 9 8 8 8 8 7 7 7 7 6 6 6 8 7 7 9 10 10 8 9 8 8 7
4 3 2 1 1 1 2 3 4 5 5 5 5 6 5 5 5 4 4 4 4 4 8 7 7 7 7 6 6 6 6 6 6 5 6 7 7 8 9 9 9 8 8 5 5 6 8
4 3 2 1 0 0 1 3 4 4 4 5 5 5 5 5 5 4 4 3 5 7 7 8 7 7 5 5 6 6 6 6 7 6 5 6 6 10 9 8 8 7 8 7 8 9 9
3 2 1 0 0 -1 0 2 3 4 4 5 4 5 5 5 4 4 4 1 5 6 7 6 6 4 4 5 5 4 6 6 6 5 5 5 6 9 10 10 9 9 8 10 10 8 7
2 1 0 -0 -1 -1 1 2 3 3 3 3 4 4 5 4 4 4 1 5 6 8 8 7 4 5 2 4 4 4 5 7 6 6 6 5 5 8 10 10 9 9 9 9 6 7 6
0 0 -0 -1 -1 -1 -1 2 3 3 3 3 3 3 5 4 4 5 0 4 7 8 8 6 4 4 4 3 4 2 3 6 7 6 7 6 4 8 10 8 8 9 8 8 10 9 7
-0 -1 -1 -1 -1 -2 -1 1 2 3 3 3 3 1 4 4 3 -0 -1 6 7 7 7 7 6 5 3 1 3 3 1 5 7 6 6 7 5 7 8 9 8 9 9 10 8 8 8
-1 -1 -1 -1 -2 -2 -2 0 1 2 3 3 4 4 4 4 -1 -2 4 6 7 6 6 6 6 5 3 0 1 0 2 6 6 6 5 6 7 7 9 8 7 8 10 10 8 7 8
-1 -1 -1 -2 -2 -2 -2 -1 0 2 3 3 4 0 3 3 4 3 4 5 5 6 6 7 6 6 4 1 2 1 2 5 6 6 6 6 6 6 6 7 5 6 8 8 7 8 7
-1 -2 -2 -2 -2 -2 -2 -1 0 1 2 3 3 1 3 -1 1 2 4 4 4 3 6 6 6 5 4 1 2 2 4 4 5 6 5 5 5 5 6 6 6 6 6 6 7 6 7
-2 -2 -2 -2 -2 -2 -2 -1 0 1 2 3 3 3 4 4 5 3 3 4 4 5 6 5 4 5 5 4 3 3 4 4 3 4 5 5 5 4 6 5 6 5 4 5 5 5 5
-2 -2 -2 -2 -2 -3 -2 -1 -0 1 2 2 2 3 4 2 2 1 1 5 5 5 6 7 5 4 4 4 5 4 4 5 4 4 4 5 5 5 6 6 6 5 4 4 3 4 5
-2 -2 -2 -2 -2 -2 -2 -1 -0 0 1 2 2 3 3 -2 1 2 5 6 5 4 5 4 4 4 5 5 6 7 6 5 6 6 6 5 7 6 6 6 5 3 2 4 3 2 3
-1 -2 -2 -2 -3 -2 -2 -1 -0 -0 0 1 2 2 2 -3 1 3 4 4 4 4 3 4 4 4 5 5 3 5 4 6 7 8 8 7 6 5 6 6 4 4 3 1 3 2 1
-2 -2 -2 -2 -2 -3 -2 -1 -1 -0 0 1 1 1 1 1 -0 2 2 3 1 1 1 3 4 5 4 2 2 4 5 6 6 7 8 7 6 5 5 5 5 2 1 2 3 2 -0
-2 -2 -2 -2 -3 -3 -2 -2 -1 -1 -0 0 0 0 1 1 2 2 1 1 3 1 -0 1 2 3 3 -1 1 3 3 6 4 5 5 4 4 3 4 4 3 -0 1 3 4 1 -1
-2 -2 -2 -3 -3 -3 -3 -2 -1 -1 -1 -0 -1 0 0 0 1 2 2 2 2 2 -2 2 -0 1 -1 -1 1 1 2 3 4 5 5 3 3 2 3 3 2 -1 1 2 -0 -1 -1
-2 -2 -3 -3 -3 -3 -3 -2 -1 -1 -1 -1 -1 -1 -0 0 1 1 2 2 2 2 1 1 1 1 1 -2 -1 0 1 1 3 2 4 3 2 1 1 1 -1 -1 -2 -2 -1 -2 -1

GFSGBSN_850_temp_111.txt.gz
Temp
10 10 9 10 10 10 10 10 10 10 10 10 11 11 10 10 10 11 11 11 11 11 10 10 10 11 10 10 12 11 10 10 10 10 10 10 10 11 9 9 10 10 11 13 13 13 14
10 10 10 10 10 10 10 9 9 10 10 10 10 11 10 10 10 10 11 11 11 10 10 9 9 8 7 7 10 9 9 10 10 10 10 9 9 10 9 9 9 11 11 11 11 12 12
10 10 10 9 9 9 8 9 9 10 10 9 10 10 11 10 10 10 10 10 11 10 10 9 8 7 7 10 10 11 10 10 10 10 9 9 10 10 10 8 10 10 8 10 10 11 11
10 10 10 10 10 9 9 8 9 9 9 9 9 10 10 10 10 10 10 10 10 10 10 9 8 7 8 10 10 10 10 10 10 10 10 10 10 10 9 10 9 9 8 8 10 10 11
9 10 10 10 10 9 9 7 8 9 9 9 9 10 10 9 9 10 10 10 10 10 9 8 8 7 8 9 10 10 10 9 9 9 10 9 9 10 9 7 6 7 7 8 8 11 10
10 9 10 9 9 9 8 7 8 8 8 9 9 9 9 9 9 9 10 10 10 8 8 7 7 5 9 9 9 9 9 9 9 9 9 9 9 6 5 5 6 6 6 6 6 8 9
9 8 9 9 8 8 6 6 6 7 8 8 8 9 9 9 9 8 9 10 9 8 8 7 7 7 10 9 9 9 9 8 8 8 6 7 5 4 5 5 6 6 6 6 7 7 7
9 8 9 9 8 7 6 4 6 6 6 7 8 8 8 8 8 7 7 6 4 4 4 8 8 7 9 9 8 9 8 8 8 6 6 5 5 7 7 7 6 6 6 6 8 9 7
8 7 9 8 7 7 4 4 4 4 5 6 7 8 8 8 7 6 6 5 4 3 2 7 8 8 9 8 8 9 8 7 6 6 6 5 7 8 7 7 6 6 6 6 6 8 9
7 8 8 8 6 7 4 2 3 3 5 6 6 7 7 8 6 5 5 4 4 4 3 8 9 9 9 8 8 8 8 7 6 6 6 5 7 7 7 6 7 5 8 7 7 6 4
6 8 7 7 6 5 4 1 2 3 4 5 6 6 7 6 7 5 5 4 4 4 7 9 9 9 8 8 8 8 8 7 5 6 6 6 6 6 6 7 8 7 8 7 8 7 5
6 7 7 6 6 4 2 2 2 2 3 5 5 6 6 7 6 5 5 4 4 4 7 7 8 7 6 7 7 7 7 7 7 5 5 5 7 6 6 8 7 9 8 7 7 6 5
6 7 7 6 5 4 2 1 3 2 2 4 5 5 6 6 6 5 4 4 4 5 7 6 6 6 6 5 5 6 5 6 5 5 6 6 6 6 7 6 8 8 7 5 5 2 6
6 7 6 5 5 3 2 1 2 2 2 4 5 5 6 6 5 5 4 3 5 6 6 7 7 6 4 4 5 4 4 4 6 5 5 5 7 8 9 8 8 7 7 6 5 7 8
7 7 5 4 4 3 1 2 2 1 2 3 4 5 5 5 5 5 4 2 5 6 7 6 6 4 3 4 4 4 4 5 6 5 5 6 5 9 8 9 8 8 7 9 6 8 7
7 5 3 4 3 2 1 1 2 1 2 3 4 5 4 4 4 4 2 5 6 7 7 6 4 4 1 3 3 4 4 6 6 7 7 5 5 8 9 9 8 8 8 8 7 7 4
5 4 3 4 2 1 1 -0 1 2 2 3 4 5 4 3 3 4 1 4 6 7 7 6 3 3 4 1 2 1 3 5 7 6 6 6 4 7 9 8 7 7 7 8 8 7 5
3 3 3 2 0 1 1 -1 1 2 3 3 4 1 3 3 2 -2 1 4 7 6 7 6 6 4 2 -0 2 1 1 4 6 6 4 6 5 5 8 9 7 7 8 9 7 7 7
1 1 1 -0 -0 -0 -1 0 1 3 3 4 4 2 2 3 0 -1 3 5 6 6 6 6 5 4 1 -1 1 -0 -0 4 5 5 5 5 7 6 7 8 7 6 7 9 8 7 7
-0 -0 -1 -1 -1 -1 -2 0 2 2 3 4 4 1 2 3 3 2 3 4 5 6 5 6 5 4 3 0 1 0 0 4 5 5 6 5 6 5 6 6 6 6 7 8 7 7 6
-1 -1 -1 -1 -1 -2 -1 0 1 2 3 4 3 1 3 0 0 1 3 3 4 4 6 6 5 5 3 0 2 1 2 3 4 5 6 5 5 5 4 4 4 4 5 7 7 5 5
-1 -1 -1 -1 -2 -2 -0 1 2 2 2 3 3 2 3 3 3 2 2 2 3 5 5 5 4 4 4 3 3 3 3 2 2 4 4 5 4 4 5 4 4 3 3 3 5 4 3
-1 -1 -1 -1 -2 -2 1 -0 1 2 2 3 2 3 5 1 1 1 1 3 4 4 5 4 4 3 3 3 4 4 4 4 4 4 3 4 4 5 5 6 5 4 2 2 3 3 4
-2 -2 -2 -2 -2 -2 -1 0 1 1 2 3 3 4 4 -1 1 2 3 5 3 4 4 3 4 3 4 5 5 5 3 2 3 4 4 4 4 5 6 5 4 2 1 2 2 1 2
-2 -2 -2 -2 -2 -1 -1 0 1 1 1 3 4 4 4 -2 1 3 3 3 3 3 3 3 3 3 4 4 2 4 4 5 6 7 6 6 5 5 6 5 4 3 1 1 2 1 -0
-2 -2 -2 -2 -2 -2 -1 -0 -0 0 2 3 3 4 3 1 -0 2 2 3 0 1 1 3 3 3 3 1 2 2 3 5 5 5 7 6 4 4 5 5 4 1 0 1 2 2 -1
-2 -2 -2 -2 -2 -2 -1 -1 -0 0 1 2 2 2 3 1 1 2 1 1 2 0 -1 0 1 2 2 -2 0 1 1 4 4 4 4 4 3 3 4 4 2 -0 -0 1 3 1 -1
-2 -2 -2 -2 -2 -2 -2 -1 -1 0 1 1 1 1 3 1 1 2 2 2 2 1 -2 1 -1 -0 -2 -1 0 0 1 3 3 4 3 3 3 2 3 2 1 -2 0 1 -0 -2 -2
-2 -2 -2 -3 -3 -3 -2 -1 -1 -0 0 1 1 1 2 2 1 2 2 2 2 2 2 1 1 0 0 -2 -2 -1 0 1 2 3 4 2 1 1 1 -0 -1 -2 -2 -2 -2 -2 -2

GFSGBSN_850_temp_114.txt.gz
Temp
10 10 10 10 10 10 10 10 10 11 10 10 10 11 10 10 11 11 11 11 11 11 11 12 12 12 11 11 11 10 10 11 11 10 10 10 10 10 8 8 9 8 9 11 10 10 11
10 10 10 9 10 10 10 10 10 10 10 11 10 10 10 10 10 11 11 11 11 11 11 11 11 10 9 9 10 10 10 10 10 9 9 9 9 9 9 8 8 9 9 9 9 10 10
10 11 10 10 10 10 10 11 10 9 9 10 10 10 10 10 10 10 11 11 11 11 11 10 9 8 9 10 10 9 9 10 9 9 9 9 10 9 9 7 10 9 7 9 10 10 9
11 10 10 10 10 10 10 10 9 9 9 9 9 10 10 10 10 10 10 11 10 11 10 10 8 8 9 10 10 10 10 9 9 9 9 9 9 9 9 9 8 7 7 6 9 9 10
10 10 10 9 10 10 10 10 9 9 9 9 9 9 9 9 9 10 10 10 11 11 9 8 8 8 9 10 10 9 9 9 8 9 8 9 8 8 8 6 5 6 6 6 7 9 8
9 9 9 9 10 9 9 9 9 9 8 8 8 9 8 9 9 9 10 10 10 9 8 7 7 6 9 10 9 9 9 8 8 8 8 9 8 5 3 4 5 6 5 5 5 8 8
7 7 9 9 9 8 9 9 9 8 7 7 7 8 8 8 8 9 9 9 8 8 7 8 7 8 10 9 9 9 8 8 7 7 6 7 4 4 4 4 6 6 5 4 6 7 7
7 7 8 8 7 8 8 8 8 8 7 5 6 7 7 7 7 8 8 8 7 6 5 7 8 9 9 8 7 9 8 8 7 5 6 4 3 6 6 6 5 5 4 4 6 8 7
7 7 7 7 8 7 8 7 8 7 6 4 5 6 6 7 7 7 8 7 6 5 4 7 8 8 9 8 7 8 8 7 6 5 5 4 6 7 6 6 5 5 5 5 5 6 7
6 7 7 6 7 7 7 7 7 6 6 4 5 4 5 6 6 6 7 6 5 5 3 8 8 8 8 8 7 8 8 7 6 5 5 4 6 6 5 5 5 4 6 6 6 5 4
5 6 6 6 6 7 7 6 6 6 4 4 5 3 3 5 6 5 6 6 5 6 6 8 8 9 8 8 7 8 7 6 5 5 5 5 6 5 5 5 6 5 7 6 6 5 5
5 6 6 6 6 7 7 6 6 6 5 3 4 3 4 4 5 5 5 5 6 4 6 7 8 7 6 7 6 6 7 7 7 5 4 5 6 6 5 6 6 7 6 6 6 4 4
4 3 4 7 5 5 6 5 6 6 3 2 3 3 4 5 5 5 5 5 5 4 7 6 6 6 5 5 5 5 4 4 5 4 5 6 6 5 6 5 7 6 6 4 4 5 5
3 4 4 3 4 5 6 5 6 5 3 2 1 3 3 4 4 4 5 4 5 6 6 7 6 5 4 4 4 4 4 3 5 4 4 5 5 6 7 6 8 5 6 6 6 6 7
6 7 6 3 5 6 5 4 5 4 4 2 1 1 3 3 4 4 6 1 5 5 6 6 5 4 4 4 3 3 3 4 5 6 4 4 4 7 8 8 8 7 5 7 5 6 6
8 8 6 4 5 6 4 4 4 3 2 2 1 2 3 3 4 4 2 5 5 6 6 6 4 3 1 3 2 3 4 5 5 6 6 4 5 6 8 8 7 7 8 6 6 7 7
10 9 5 4 5 5 4 5 4 3 1 1 2 2 2 3 3 4 1 4 6 7 7 5 3 3 3 0 0 0 3 4 5 6 5 5 4 6 7 8 7 6 6 6 7 6 7
8 6 6 5 5 3 3 4 2 2 1 2 1 0 2 2 1 -1 1 4 6 6 6 6 4 4 2 -1 0 -2 -0 3 6 5 4 5 5 4 7 9 7 7 7 7 7 7 7
6 6 5 5 4 3 4 3 1 1 1 1 2 0 1 2 -0 0 3 5 6 5 5 5 4 3 1 -2 -2 -1 -1 3 4 4 3 4 5 5 6 7 7 6 7 8 7 6 6
5 5 4 4 2 1 1 1 0 0 1 3 4 -0 1 1 2 3 3 4 4 5 5 5 5 3 2 0 1 -1 -1 3 5 5 5 5 5 5 4 5 4 4 6 7 6 6 4
5 3 2 1 0 1 2 1 -0 1 2 4 3 0 2 0 1 2 3 3 3 4 5 5 4 4 3 -0 1 0 1 2 4 5 5 4 5 4 4 3 3 3 4 5 4 4 4
0 0 -0 -1 -1 0 -0 -0 2 1 3 3 3 2 3 2 2 2 3 3 3 4 4 4 4 4 3 2 2 2 3 2 2 3 4 4 4 4 5 4 4 2 2 3 3 3 2
-1 -1 -1 -1 -0 -0 -1 1 1 2 2 2 3 4 5 1 2 2 1 2 3 4 3 4 3 3 3 3 4 4 3 3 3 3 2 3 4 4 5 5 5 4 1 1 2 2 3
-1 -1 -1 -1 -1 -0 0 2 1 1 3 5 4 4 4 0 2 3 3 4 3 3 3 3 3 3 4 4 4 4 1 1 1 2 2 3 4 4 6 5 4 2 2 2 1 0 1
-2 -1 -2 -2 -1 -1 1 1 1 2 3 5 4 5 4 -1 2 3 2 2 2 3 3 3 3 3 3 3 2 3 4 5 4 5 3 3 3 5 6 4 3 3 1 0 1 0 -1
-2 -2 -2 -2 -1 -0 0 1 2 2 3 4 5 5 5 2 1 3 1 2 1 1 1 2 3 3 3 0 2 2 2 4 4 4 5 4 3 3 4 5 3 1 0 0 1 1 -1
-2 -2 -2 -2 -1 -0 0 1 1 2 3 4 4 5 5 1 1 3 1 1 2 -0 -1 -0 1 1 2 -2 -0 1 1 3 2 3 3 3 3 3 3 3 2 -1 -1 0 3 -0 -2
-2 -2 -2 -2 -1 -0 -0 -0 1 2 3 3 3 4 5 1 1 2 3 2 1 1 -2 0 -1 -1 -2 -2 0 -0 0 2 1 3 3 2 2 2 3 2 2 -2 0 1 -1 -2 -3
-2 -3 -2 -1 -1 -1 -1 -0 0 1 2 3 3 3 4 3 1 2 2 2 3 3 2 0 0 -0 -0 -3 -2 -2 -1 -1 2 3 2 2 1 1 0 -0 -2 -2 -2 -2 -2 -2 -3

GFSGBSN_850_temp_117.txt.gz
Temp
10 10 10 10 10 10 10 10 10 10 10 11 10 11 11 10 10 10 10 10 11 11 12 12 12 13 13 12 11 10 10 10 10 10 10 10 10 9 9 9 9 10 11 10 10 10 10
10 10 10 10 11 10 10 10 10 10 10 10 10 10 10 10 10 10 9 10 10 11 11 12 12 12 12 10 10 10 10 10 10 10 10 9 9 9 9 8 9 9 10 10 9 10 10
10 10 10 10 11 10 11 10 10 10 10 10 10 10 10 10 10 9 9 10 10 10 11 12 12 11 11 10 10 10 10 9 10 9 9 9 9 9 9 9 9 8 9 10 11 11 10
9 9 10 10 10 10 11 11 10 9 10 10 9 10 10 10 10 9 9 10 10 10 11 11 11 10 11 10 10 10 9 9 9 8 8 9 9 8 8 8 9 9 9 9 10 11 11
8 9 8 10 10 10 10 9 10 10 9 9 9 9 9 9 9 9 9 9 10 10 10 10 10 9 10 10 10 9 9 9 9 8 8 8 8 8 8 8 8 7 8 9 9 10 10
7 8 8 9 9 9 9 9 9 9 9 9 9 9 9 9 8 9 9 9 9 10 9 9 9 9 10 10 9 9 8 8 8 8 8 8 7 8 7 8 8 8 8 8 8 10 9
7 7 8 8 8 8 9 8 8 8 8 8 8 8 8 8 8 8 8 8 8 8 9 10 8 8 10 9 9 8 8 8 8 7 7 6 7 8 9 7 8 7 7 7 8 9 8
6 7 7 8 7 7 8 8 8 8 8 8 7 7 7 7 7 8 8 8 9 9 8 8 8 8 9 9 8 8 8 8 7 6 6 6 7 9 7 7 6 6 6 6 8 8 8
7 6 6 7 7 7 7 8 8 8 7 8 7 6 5 6 6 7 8 8 8 8 6 7 7 8 8 8 7 8 8 7 6 6 6 6 8 7 7 7 6 7 6 7 7 8 8
6 7 7 6 6 7 7 7 7 7 7 7 7 7 4 4 4 6 6 7 7 6 7 8 7 8 8 8 7 7 7 7 6 6 6 6 6 7 7 6 7 5 7 7 7 6 7
3 4 5 6 6 6 6 6 6 6 7 7 7 5 3 3 5 6 7 7 7 5 9 8 7 8 8 7 7 7 7 6 6 7 6 8 7 7 7 7 7 8 7 7 7 7 6
2 3 3 4 6 6 6 6 6 7 7 7 7 5 3 3 4 6 6 7 6 8 8 7 7 7 7 6 6 6 6 6 6 6 5 6 6 7 7 7 7 8 7 8 7 6 6
2 2 2 2 2 5 5 5 5 6 5 6 6 5 3 2 4 5 6 5 7 7 7 6 6 6 6 5 5 5 5 5 5 6 6 7 7 6 6 7 7 7 8 8 8 7 8
2 4 2 1 1 2 2 3 5 6 6 6 5 2 2 2 4 4 4 5 7 7 6 6 6 5 5 4 5 4 5 5 5 5 5 5 7 7 7 8 8 8 8 7 7 8 8
1 1 1 1 1 1 2 3 4 5 3 5 4 1 0 1 3 4 4 5 8 6 6 6 5 5 4 4 4 4 4 5 6 6 4 4 5 8 8 8 9 8 7 9 6 7 7
1 1 2 1 1 2 3 2 4 4 2 5 3 -0 -0 1 2 2 3 6 6 6 6 6 5 4 3 4 4 4 4 6 6 6 6 5 4 7 8 9 8 8 8 7 6 7 8
1 1 1 2 3 4 5 4 4 4 3 3 -1 -2 -0 -1 1 1 3 4 6 6 7 5 4 3 4 2 2 3 4 5 5 6 5 5 3 7 7 9 9 9 7 6 7 8 8
1 2 4 6 7 6 5 3 3 2 0 2 -1 -0 -0 -0 1 1 2 5 6 5 6 5 4 4 3 1 3 0 3 4 5 4 4 5 4 5 7 9 8 8 8 7 7 8 7
2 7 7 7 6 2 2 3 3 2 2 0 -0 -0 -0 0 1 1 3 5 5 5 5 5 4 4 1 1 1 1 1 3 4 4 5 4 5 6 9 8 7 6 7 6 6 6 7
7 7 7 6 6 2 2 3 2 1 2 3 0 0 -0 0 1 3 4 5 4 5 5 5 4 3 2 2 2 1 1 3 4 4 4 5 5 4 5 4 4 4 4 5 6 6 4
7 6 6 4 3 3 3 1 2 1 2 2 0 0 2 1 1 2 3 3 4 4 4 5 4 4 4 2 2 2 2 3 4 4 5 4 4 4 4 3 4 3 2 4 4 5 4
6 6 4 3 3 3 1 2 -0 3 -0 2 0 1 2 3 2 3 3 3 4 4 4 4 4 3 3 4 4 3 4 3 3 4 4 4 4 4 5 4 4 2 2 3 3 3 1
4 5 4 3 2 1 0 2 1 1 -0 0 2 3 3 2 2 3 2 3 4 4 3 4 4 4 3 3 3 4 4 4 4 4 3 2 3 5 6 5 5 4 1 1 2 2 3
0 1 1 1 1 1 1 0 0 -1 1 3 3 4 2 1 3 4 3 4 4 4 3 3 3 3 3 3 4 3 0 1 1 2 3 3 3 4 6 5 5 2 1 1 1 0 1
-1 -2 -1 -1 -1 -2 -1 -1 -0 -0 2 3 4 5 3 2 3 3 3 3 3 3 2 2 3 3 3 3 3 4 4 4 3 3 3 3 3 4 6 5 3 2 1 1 2 0 -1
-1 -0 -1 -1 -2 -2 -1 -0 -0 2 3 4 6 4 4 2 2 3 2 3 2 1 2 1 2 2 3 2 3 4 3 4 5 4 4 3 4 4 5 5 5 1 -0 -0 1 2 -1
-2 -3 -3 -2 -3 -3 -2 -1 0 2 4 4 5 5 5 0 1 3 2 2 2 1 1 0 1 1 1 1 3 3 3 4 4 4 4 4 4 3 3 4 2 -0 -1 -0 3 1 -2
-2 -2 -2 -2 -2 -2 -1 -0 1 3 3 5 5 6 7 1 1 3 4 3 2 2 1 -0 1 0 -0 1 2 1 2 2 3 3 3 3 2 2 3 3 3 -1 -0 2 -1 -2 -3
-3 -2 -2 -2 -1 -1 -1 1 2 3 4 4 5 5 5 3 1 3 3 3 4 4 2 -0 0 -0 -0 0 0 0 2 2 2 3 3 2 2 2 0 0 -2 -2 -2 -2 -2 -2 -3

GFSGBSN_850_temp_120.txt.gz
Temp
11 10 10 10 10 10 10 10 10 10 10 10 10 11 11 11 11 11 11 11 11 11 12 12 12 13 13 13 12 10 10 10 10 10 10 11 12 12 14 14 14 15 15 14 14 13 13
10 10 10 10 10 10 10 10 10 10 10 10 10 10 10 10 10 10 11 11 11 11 11 12 12 12 12 14 10 10 10 10 10 10 10 11 11 11 12 13 13 14 13 13 13 14 13
10 10 10 10 10 10 10 10 10 11 10 9 9 10 10 10 10 10 10 11 11 11 11 12 12 12 10 11 10 10 10 10 10 9 10 10 10 11 12 14 12 12 13 15 16 15 14
9 9 9 10 10 10 10 10 10 10 10 10 9 9 9 10 10 10 10 10 10 11 11 11 11 11 12 10 10 10 9 10 9 9 9 9 9 10 11 11 12 14 14 14 16 15 14
7 8 9 9 9 9 9 9 10 9 9 9 9 9 9 9 9 9 10 10 10 10 11 11 10 10 12 10 10 10 9 9 9 8 8 8 9 11 11 13 14 14 14 15 15 15 14
8 9 9 8 8 8 9 9 9 9 9 9 9 9 9 8 8 9 9 9 9 10 10 9 9 10 10 11 9 9 9 9 9 9 10 10 11 13 13 14 15 14 14 14 14 15 14
8 8 8 8 7 7 9 9 8 8 8 8 8 8 8 8 7 8 8 9 7 8 9 11 11 10 10 9 10 9 8 8 9 10 13 10 12 14 14 12 12 11 12 12 14 14 12
7 8 8 7 8 7 8 8 8 8 8 8 8 8 8 8 6 7 8 7 9 9 11 9 8 9 9 9 10 9 8 10 10 12 10 11 13 13 11 11 10 11 11 12 14 13 13
7 7 8 8 7 7 7 7 7 7 7 7 8 7 7 7 4 6 7 7 9 9 10 9 7 8 9 8 10 10 9 9 10 11 11 11 13 10 11 11 11 12 12 12 12 13 14
5 6 7 7 8 7 7 7 7 7 7 7 8 7 6 6 5 5 6 7 8 8 12 12 9 9 8 8 10 8 8 9 10 11 10 11 11 10 11 11 12 11 13 12 11 12 12
4 5 5 5 6 6 6 6 7 6 7 7 7 7 6 6 5 5 6 7 8 9 10 11 10 8 8 9 9 9 7 8 10 11 10 12 11 11 11 12 11 12 12 11 11 11 12
2 2 4 4 3 5 6 6 6 6 6 6 6 7 6 5 3 5 5 6 7 9 10 10 10 10 10 9 9 8 8 8 8 9 10 11 11 10 12 11 11 11 11 12 12 12 11
1 2 2 3 3 3 3 5 6 5 4 5 5 6 5 5 3 5 5 5 8 10 11 9 9 9 10 9 9 9 9 9 10 10 12 12 12 11 10 11 12 11 11 12 12 12 14
1 1 2 3 3 2 2 1 4 4 4 4 5 6 5 5 3 3 2 4 8 12 11 10 9 9 9 8 8 8 8 9 9 9 10 10 12 11 11 11 11 11 11 11 8 11 12
1 1 2 2 3 2 1 1 1 2 3 4 3 4 3 1 1 2 3 5 10 12 11 9 9 9 8 7 8 8 9 10 9 9 8 8 8 11 11 11 11 11 11 12 9 10 9
1 1 1 1 2 2 1 1 1 2 3 4 1 1 -0 -0 -1 1 3 6 10 10 10 10 10 9 8 8 8 8 8 9 9 9 8 8 5 10 11 11 12 11 11 9 8 8 10
1 1 1 1 1 1 1 1 1 2 2 4 2 0 -1 -1 -1 -0 2 6 10 9 8 9 8 7 8 6 7 8 9 9 9 9 8 8 4 10 11 11 11 11 10 9 8 10 9
1 1 1 1 0 0 1 1 1 1 1 1 1 0 -2 -1 0 0 4 7 7 8 8 7 8 7 6 4 7 5 7 8 8 7 8 8 7 8 10 12 11 11 10 8 8 10 9
1 1 0 -0 -0 -0 0 0 1 1 2 1 1 -2 -2 -1 1 2 4 6 6 7 7 7 6 6 5 4 4 4 5 7 6 7 8 7 8 9 12 11 11 8 7 7 6 6 8
0 0 0 0 0 0 0 1 1 1 1 1 -0 -1 -2 -2 1 3 4 5 5 5 6 6 6 5 5 5 6 4 4 7 6 6 5 6 8 7 8 7 6 5 5 7 6 8 6
-0 1 2 4 4 4 2 0 0 1 1 2 1 1 2 1 0 4 6 6 6 4 5 6 5 6 7 4 5 5 6 6 6 5 6 7 5 6 6 5 6 5 3 4 5 5 6
-1 1 4 5 5 6 6 1 0 1 1 2 0 1 2 4 2 3 6 6 6 6 7 6 6 7 7 7 7 6 7 7 7 7 7 6 5 5 5 6 5 4 3 5 5 4 3
1 3 6 5 5 6 6 3 1 1 1 3 3 3 3 3 3 4 5 7 8 7 4 7 7 7 6 7 7 7 7 6 7 7 6 5 4 5 8 6 7 6 2 2 3 4 4
2 5 4 3 5 4 5 2 1 1 2 3 1 3 3 2 4 5 7 7 7 7 5 5 6 7 5 4 4 4 4 5 5 6 6 5 4 5 8 6 7 3 4 4 3 3 3
2 4 3 3 3 2 2 1 1 1 2 3 2 3 3 2 5 5 5 5 5 5 5 5 4 3 4 4 6 6 6 6 6 7 6 6 4 6 7 7 4 3 3 4 4 2 2
-0 2 3 2 1 0 0 0 0 1 1 1 3 3 3 3 3 4 5 5 5 5 4 3 2 3 3 7 6 7 7 9 7 5 6 6 5 6 7 7 7 3 2 1 2 3 1
-1 -1 -0 -0 -0 -0 -0 -0 0 0 0 0 1 2 3 1 2 4 5 5 5 6 5 3 2 3 2 6 6 7 7 8 7 7 5 6 6 6 6 7 4 1 0 -0 3 2 1
-1 -1 -1 -1 -1 -1 -0 -0 -0 0 1 3 3 4 5 2 -0 3 4 2 3 5 5 3 3 2 4 5 7 6 7 7 6 6 6 7 6 5 5 6 4 -0 0 2 0 0 -0
-2 -1 -1 -1 -1 -1 -1 -0 1 2 3 4 5 4 3 4 0 3 4 4 4 5 3 2 4 4 5 6 6 6 6 6 7 5 5 5 5 5 3 2 -1 -2 -2 -1 -0 -1 -1

GFSGBSN_850_temp_123.txt.gz
Temp
10 10 11 10 10 10 10 10 10 10 10 10 10 10 10 11 10 11 11 11 11 12 12 12 13 13 13 15 16 12 12 11 12 13 13 14 16 16 18 18 18 18 19 18 17 17 17
10 10 10 10 10 10 10 10 10 10 10 10 10 10 10 10 10 10 11 10 11 11 11 12 12 13 12 16 13 12 11 11 12 13 14 14 14 14 15 17 17 18 17 17 17 18 18
10 10 10 10 10 10 10 10 10 10 10 9 9 9 9 10 10 10 10 10 10 11 11 12 12 12 12 14 12 12 11 12 11 12 12 13 12 14 16 17 16 16 16 19 20 19 18
9 9 9 9 10 10 10 10 10 9 10 10 10 9 9 9 9 9 10 10 10 10 11 12 11 11 14 11 11 11 12 12 11 11 11 12 12 13 14 15 16 17 18 18 21 20 18
9 9 8 8 9 9 10 9 9 9 9 9 9 9 9 9 9 9 9 10 10 10 10 11 11 9 15 11 11 12 11 12 11 11 11 11 11 14 15 16 18 19 19 19 19 20 19
8 8 8 7 8 8 9 9 9 9 9 9 9 9 9 9 9 8 9 9 9 10 9 10 9 10 12 13 12 11 11 10 11 12 12 12 14 16 17 18 18 18 17 18 18 19 19
8 8 8 8 8 8 8 9 9 9 9 8 8 8 8 8 7 8 8 8 9 10 9 13 14 14 13 12 10 11 11 11 12 13 15 15 15 18 19 17 16 16 16 16 18 19 16
8 8 8 8 8 8 8 8 8 9 8 8 8 8 7 7 7 7 7 9 9 8 10 13 12 11 11 11 13 12 11 12 13 15 15 15 16 18 16 15 14 15 15 16 18 18 17
7 7 8 8 8 8 7 7 6 7 7 8 7 7 7 7 7 7 7 7 7 8 10 12 12 11 11 11 13 14 11 13 14 15 15 15 18 15 14 15 15 16 16 16 16 16 17
5 7 7 7 8 8 8 7 7 7 7 7 7 7 7 7 6 6 6 7 7 7 10 15 11 11 10 11 12 13 11 12 14 14 15 15 16 14 15 15 15 14 17 15 15 15 14
2 4 5 6 7 8 8 7 7 7 7 6 6 6 7 7 6 6 6 6 7 7 8 16 13 11 11 12 12 11 10 11 13 15 13 16 15 14 14 15 15 14 15 14 14 14 15
1 2 3 4 5 5 6 6 7 7 7 6 5 6 7 6 6 5 5 5 5 4 6 13 12 12 12 12 12 12 11 10 12 13 14 15 15 14 15 15 14 14 14 15 16 16 14
1 1 3 3 3 4 3 4 5 6 5 6 5 6 6 6 5 5 3 4 3 6 14 13 12 13 13 12 13 12 12 12 13 13 13 15 15 15 13 14 16 14 15 13 14 13 14
0 1 1 1 1 2 3 3 3 2 4 3 4 5 5 5 4 4 3 3 4 11 13 14 13 13 12 13 12 12 12 13 12 13 14 15 14 14 14 14 14 14 14 13 11 13 14
0 1 1 2 2 2 2 2 2 1 1 3 3 3 4 4 3 2 1 3 8 13 15 13 12 12 12 12 11 11 13 13 14 13 11 12 12 15 14 14 14 14 13 14 11 13 12
-0 0 1 1 2 1 2 2 2 1 1 2 3 1 2 2 1 1 2 4 5 11 12 13 11 12 12 12 10 11 13 13 12 12 11 12 8 14 14 14 14 13 15 11 11 9 11
-1 -0 0 1 1 1 1 1 1 1 1 2 3 1 0 0 -0 -0 3 6 9 10 11 12 11 12 12 12 11 11 13 12 12 11 11 11 6 13 13 14 14 14 12 11 11 12 10
-1 -0 0 1 1 1 1 1 1 1 2 2 1 2 -1 -0 -0 0 4 5 8 10 10 11 12 11 11 9 9 7 10 11 11 11 10 11 9 10 14 15 14 13 12 11 8 11 8
-1 -0 -0 1 1 1 1 1 1 1 1 1 1 -1 -1 -1 3 3 5 6 7 8 9 10 9 9 7 5 5 6 7 10 9 10 10 9 9 11 13 13 13 11 11 10 9 8 8
-2 -1 -0 -0 0 1 1 1 1 1 1 1 1 -0 -1 -1 1 7 5 6 7 8 10 9 9 6 6 6 8 5 6 9 8 9 7 7 9 9 11 10 9 8 8 8 8 7 8
-2 -1 0 0 0 0 1 1 0 1 1 1 1 2 3 0 1 4 7 7 6 6 8 7 5 7 7 6 7 7 7 9 8 8 7 9 7 7 9 9 8 6 5 6 6 8 7
-1 -1 0 1 0 -0 -0 0 0 0 1 1 1 6 5 8 3 4 6 7 6 6 7 6 7 6 6 6 6 7 9 9 9 9 9 9 6 5 6 8 8 5 4 6 6 5 4
-0 0 0 -0 -0 -1 -0 -1 -0 0 1 1 2 4 6 7 5 4 7 8 8 8 7 7 7 6 6 8 9 10 10 10 10 9 9 7 7 6 9 10 9 7 4 5 6 7 7
-0 -1 -1 0 1 2 2 1 0 -0 0 1 3 5 6 7 7 6 8 8 8 8 6 6 7 7 8 7 6 6 7 8 8 9 9 6 6 7 9 8 7 4 7 8 7 6 6
-1 -1 1 2 3 3 3 3 3 1 0 1 3 5 6 7 7 7 7 7 7 6 6 8 8 8 6 7 8 7 7 8 8 9 9 9 6 7 8 10 5 4 6 7 7 5 5
-1 0 2 3 4 4 4 3 4 2 1 2 3 4 6 8 7 7 7 6 6 6 8 6 4 5 6 8 8 8 8 9 9 8 9 8 7 6 9 8 8 4 5 5 6 5 4
-0 1 2 2 3 5 4 5 5 1 1 2 3 4 6 5 7 6 6 6 6 6 6 4 3 4 5 7 7 8 10 11 9 8 6 6 7 6 8 8 6 4 3 2 4 4 3
-1 -0 1 1 2 2 2 1 0 1 1 1 2 4 5 2 2 4 3 5 5 6 5 5 5 5 6 7 8 9 9 9 9 10 9 8 8 7 8 7 7 2 1 2 2 2 2
-1 -1 -0 -0 0 0 0 -0 0 0 1 2 2 3 4 2 0 1 2 3 5 6 6 5 7 6 7 8 9 10 8 8 9 7 9 7 8 7 6 3 1 -1 -0 0 -0 -0 0

GFSGBSN_850_temp_129.txt.gz
Temp
11 11 11 11 10 10 10 11 10 11 11 11 10 10 11 10 10 11 11 11 12 12 12 12 12 13 14 13 14 15 15 15 14 14 15 15 15 16 14 15 16 16 17 19 19 18 18
10 11 11 11 10 11 10 10 10 10 10 10 10 10 11 10 10 10 11 11 12 12 12 12 12 12 12 12 14 14 14 15 14 14 14 15 15 15 15 15 15 17 17 17 18 18 18
10 10 9 9 10 10 10 10 10 10 10 10 10 10 10 10 10 10 11 11 11 11 11 11 11 11 12 14 14 14 14 14 14 14 13 14 14 14 14 13 16 16 14 14 16 17 16
9 10 10 9 10 10 10 10 10 10 10 10 10 9 10 10 10 10 10 11 11 11 11 11 11 10 11 14 14 14 14 14 14 14 14 14 13 13 13 14 15 14 14 13 16 17 18
9 9 9 9 9 10 10 10 10 10 9 9 9 9 9 9 9 9 10 10 10 11 11 11 10 10 11 13 14 14 14 14 14 14 14 13 13 13 13 11 10 13 12 13 15 17 17
8 8 8 8 9 9 9 9 9 9 9 9 9 9 8 9 8 8 9 10 10 11 12 11 10 9 12 14 14 14 13 13 13 13 14 14 13 11 10 10 10 14 14 13 13 15 15
4 7 8 8 8 8 8 8 8 8 8 8 9 8 8 8 8 8 8 10 11 11 11 12 12 13 14 15 14 14 14 13 13 13 11 14 10 9 11 13 15 15 14 13 13 15 16
5 5 7 7 7 7 7 7 7 8 8 8 8 8 8 8 8 8 8 9 10 9 8 11 12 12 14 14 14 14 14 13 13 11 13 11 11 14 15 16 16 15 13 12 14 16 16
2 3 5 6 6 6 7 7 7 7 7 8 8 7 8 7 7 8 8 8 8 8 7 9 13 12 13 13 14 14 14 13 12 12 13 12 14 16 16 15 15 14 14 13 14 15 14
1 1 2 2 5 6 6 7 7 7 7 7 6 7 7 7 7 7 7 8 8 8 5 11 13 14 14 14 13 14 13 14 13 13 13 13 15 16 15 15 14 12 15 15 14 12 10
1 1 1 1 2 3 4 5 6 6 6 6 6 6 6 6 6 7 7 8 9 8 6 15 13 13 14 13 14 14 14 14 12 12 13 12 13 13 14 14 15 14 15 14 13 11 10
1 1 1 1 1 2 2 3 3 5 5 6 6 7 6 6 5 6 7 7 8 6 6 13 13 13 13 13 13 13 13 12 12 12 12 12 14 14 14 15 15 15 13 12 13 11 7
1 1 1 1 1 1 2 2 2 2 3 5 6 6 5 4 5 6 6 7 5 6 12 13 13 13 12 12 12 13 12 11 9 10 10 13 13 14 15 13 14 13 12 7 7 7 9
1 1 1 1 1 1 1 2 2 2 2 3 4 4 4 4 5 5 5 5 6 10 11 14 14 13 11 12 12 12 12 10 11 11 10 10 8 13 15 14 13 12 12 9 8 7 8
0 1 1 1 1 1 1 1 1 2 1 2 2 2 3 3 4 4 5 5 6 10 12 12 12 10 10 12 11 12 11 11 13 14 11 9 10 13 14 15 14 13 12 13 11 10 5
-0 0 0 0 0 0 1 1 1 2 2 1 2 2 2 3 3 3 3 5 6 10 10 10 9 10 9 11 11 11 12 13 12 13 11 10 6 12 13 14 14 13 13 9 7 6 7
-0 -0 -0 -0 0 0 1 1 1 1 1 1 1 2 2 2 2 2 3 3 7 9 9 9 9 9 9 8 9 10 11 13 11 12 12 10 6 9 11 13 12 12 11 11 9 8 5
-0 -1 -1 -1 -1 -0 0 0 1 1 1 2 1 1 1 2 1 1 2 5 7 7 8 9 10 9 8 8 8 6 8 10 10 10 10 9 8 8 10 12 12 13 12 11 6 8 5
-0 -1 -1 -1 -1 -1 -1 0 1 1 1 1 1 0 1 1 2 1 3 5 5 7 7 9 9 9 6 5 5 6 7 10 10 11 9 9 7 6 9 11 12 11 11 10 8 6 4
-1 -1 -0 -1 -1 -1 -1 -0 0 1 1 1 2 -1 -0 0 1 2 4 4 5 7 7 8 8 9 6 6 7 4 7 9 9 9 8 8 7 7 5 7 6 7 7 9 6 1 3
-1 -1 -1 -1 -1 -1 -1 -0 0 1 1 1 1 0 1 -0 -0 1 3 5 4 5 7 8 7 8 6 5 5 5 7 8 9 8 8 7 4 6 7 8 8 8 6 7 7 6 6
-2 -1 -1 -1 -1 -1 -1 -1 0 1 0 0 1 1 1 3 2 1 2 3 4 6 6 6 6 7 7 5 5 6 7 6 7 8 7 7 4 3 4 7 7 6 4 4 6 6 4
-2 -2 -2 -2 -1 -1 -1 -1 -0 0 0 1 1 2 3 3 1 1 1 3 4 6 7 7 7 6 7 7 8 8 8 8 8 7 6 6 4 4 6 8 7 6 5 4 6 6 6
-2 -2 -2 -2 -2 -2 -1 -1 -1 -0 -0 0 0 1 2 1 3 3 4 3 3 4 6 8 8 6 7 8 7 7 7 8 8 8 8 7 6 5 5 6 5 5 7 6 8 8 4
-3 -2 -2 -2 -2 -2 -1 -1 -1 -0 -0 -1 0 1 2 2 4 5 5 4 4 4 5 7 8 8 7 7 5 4 5 6 6 8 8 8 5 4 4 5 5 6 7 7 8 6 5
-3 -2 -2 -2 -2 -2 -2 -1 -1 -1 -0 -1 -0 0 1 2 3 4 5 5 4 3 4 7 6 7 6 3 2 2 3 5 6 7 8 8 6 4 4 5 5 4 4 5 6 3 6
-3 -3 -3 -2 -2 -2 -2 -2 -1 -1 -0 -1 -0 -0 1 1 3 5 5 5 6 6 3 3 5 5 5 2 2 4 4 8 7 7 5 5 5 5 4 4 4 3 3 4 4 2 5
-3 -3 -3 -2 -2 -2 -2 -2 -1 -1 -0 -1 -0 -0 -0 1 3 4 5 5 6 6 2 4 3 3 3 2 3 4 5 6 7 8 7 6 5 4 4 4 4 2 2 3 3 2 2
-3 -3 -3 -2 -2 -1 -1 -1 -1 -1 -0 -0 -0 -0 -0 1 2 3 5 5 6 5 6 3 4 4 5 3 4 5 4 5 8 5 8 5 5 4 3 2 0 0 1 2 2 -0 -1

GFSGBSN_850_temp_132.txt.gz
Temp
10 10 10 11 11 11 10 11 11 11 11 11 10 10 11 11 11 11 11 11 11 12 12 12 13 14 14 14 15 15 15 15 15 14 14 14 15 14 12 13 14 15 16 17 17 17 17
10 10 10 10 10 10 10 10 10 10 10 10 11 10 10 10 10 10 11 11 11 11 12 12 12 13 13 12 14 14 15 15 14 14 14 14 13 14 14 13 13 15 15 15 16 17 16
10 9 8 9 10 11 10 10 10 10 10 10 10 10 10 10 10 10 10 11 11 11 11 11 12 12 12 14 14 14 14 14 14 14 14 14 14 13 13 12 14 14 13 12 14 16 15
8 9 9 9 9 10 10 10 10 10 10 10 10 10 10 10 10 10 9 11 11 11 11 11 11 11 13 13 14 14 14 14 14 14 13 13 13 13 13 13 13 13 13 12 14 15 16
7 8 9 9 9 9 9 9 10 10 10 10 9 9 9 9 9 9 9 10 11 12 11 11 11 11 12 14 14 14 14 14 14 14 14 13 13 13 12 11 9 11 11 12 13 15 17
7 7 8 8 8 8 9 9 9 10 10 10 9 9 9 9 9 9 10 10 11 12 11 11 9 9 13 14 14 15 15 14 13 13 13 13 13 10 8 8 10 12 12 12 12 13 13
4 4 6 5 7 7 8 8 9 9 9 9 9 9 9 8 9 9 10 10 11 11 11 12 11 11 13 14 14 14 14 13 13 13 11 13 9 9 10 10 12 12 12 12 11 13 14
3 3 4 4 4 6 6 7 7 8 8 8 8 8 8 8 8 9 10 10 11 9 8 12 12 12 13 13 12 13 14 13 13 11 12 10 9 11 13 13 12 12 12 11 12 14 14
2 2 2 3 3 3 5 6 7 7 7 8 8 8 8 7 7 8 9 9 9 9 7 9 12 11 13 13 11 12 14 13 12 11 11 10 11 14 14 13 13 13 13 12 12 13 12
1 2 2 2 2 3 4 5 6 6 7 7 7 8 7 7 6 8 9 9 9 9 5 9 10 12 13 13 13 13 14 13 12 11 11 10 13 13 12 12 13 12 13 13 12 11 9
1 1 1 1 1 1 3 3 5 6 6 6 6 6 6 6 7 8 8 9 9 8 6 13 13 13 14 14 13 13 13 13 11 12 12 10 11 11 11 13 14 12 14 13 12 11 10
1 1 0 1 1 1 1 3 3 4 6 6 6 6 6 6 7 8 8 8 8 5 6 11 12 12 12 12 13 13 13 13 12 11 11 10 12 11 11 13 14 14 13 11 11 10 7
2 1 1 1 1 1 1 2 2 2 4 6 6 5 5 5 6 7 7 7 5 5 11 12 12 12 11 11 12 12 11 10 9 9 9 10 11 12 13 11 12 13 9 6 7 6 8
1 1 1 1 1 1 1 1 2 2 3 4 5 5 4 4 5 6 7 5 6 8 10 13 11 12 10 11 10 11 10 8 9 10 8 8 8 12 12 12 12 11 10 7 8 6 7
1 1 1 1 1 1 1 1 1 2 2 2 2 3 3 3 5 5 6 4 5 8 11 10 10 10 9 11 10 10 9 9 10 10 8 9 9 12 13 13 13 12 11 12 9 9 5
0 0 1 1 1 1 1 1 1 1 2 1 2 2 2 3 3 4 4 5 5 8 10 10 8 10 8 9 10 9 10 12 11 10 11 9 6 11 12 12 13 13 12 8 6 6 8
0 0 0 1 1 1 1 1 1 1 1 1 1 2 2 3 3 3 3 2 6 8 8 9 8 8 9 8 8 9 10 11 9 10 10 9 5 8 11 11 11 11 10 10 9 7 7
0 0 0 0 0 0 1 1 1 1 1 1 2 -1 2 3 2 1 2 3 6 6 8 8 8 8 7 8 8 5 8 9 10 9 8 9 7 6 9 11 11 11 10 11 7 9 5
-0 -0 0 -0 -0 -0 0 1 1 1 1 1 1 0 1 1 2 2 1 3 5 6 7 7 8 8 6 4 4 5 6 9 10 10 7 8 6 4 8 10 8 8 9 9 7 5 4
-0 -0 -0 -0 -1 -0 -0 0 0 1 1 1 2 -0 0 1 1 2 2 2 3 5 5 6 6 7 6 6 6 4 7 8 9 8 8 8 6 6 6 6 6 7 7 6 5 2 3
-1 -1 -0 -1 -1 -1 -1 -1 0 0 1 1 2 -1 1 0 1 1 2 3 2 2 6 6 5 5 5 4 5 5 5 7 8 8 8 6 3 6 6 7 7 7 7 7 5 5 4
-1 -1 -1 -1 -1 -1 -0 -1 -0 0 0 0 1 -0 1 0 2 1 2 1 2 3 4 5 4 5 5 5 5 4 5 5 5 6 5 5 2 3 5 7 6 5 6 6 6 6 4
-2 -2 -1 -1 -1 -1 -1 -0 -0 -0 -0 1 0 2 3 1 0 1 1 2 2 3 4 5 5 4 5 5 8 8 8 7 6 6 4 5 3 3 4 7 6 4 4 5 5 5 5
-3 -3 -2 -1 -1 -1 -1 -1 -1 -1 -0 0 0 1 1 -0 0 1 2 2 2 2 3 5 5 4 6 7 7 7 7 7 6 6 6 4 4 4 4 6 3 5 6 6 6 7 3
-3 -3 -3 -2 -1 -2 -2 -1 -1 -0 -1 -1 0 1 1 1 2 2 2 2 2 2 3 3 4 5 6 7 3 3 2 4 4 5 6 6 5 4 5 5 4 6 5 5 6 5 3
-3 -3 -3 -2 -2 -2 -2 -2 -1 -0 -0 -1 -1 0 1 1 1 3 3 3 1 -0 1 3 4 5 6 2 2 3 3 3 4 6 7 6 6 4 3 5 4 4 4 4 6 3 3
-3 -3 -3 -3 -3 -2 -2 -2 -2 -1 -0 -2 -2 -1 -0 0 2 3 2 2 4 3 1 3 4 5 6 1 2 2 2 6 5 5 5 5 4 4 4 4 5 3 3 4 5 3 3
-3 -3 -3 -3 -3 -3 -3 -2 -2 -1 -1 -1 -1 -1 -1 -0 1 2 3 3 4 4 2 3 2 2 1 2 2 2 3 5 5 7 6 5 4 4 4 4 4 2 2 3 1 -1 0
-3 -3 -3 -3 -3 -3 -3 -3 -2 -2 -1 -1 -2 -2 -1 -1 -0 2 2 3 3 4 4 3 3 2 2 1 2 3 3 3 6 5 6 5 5 4 3 2 -0 0 0 2 2 1 -1

GFSGBSN_850_temp_135.txt.gz
Temp
10 10 11 11 10 11 11 11 11 11 11 11 11 10 10 10 10 10 11 11 12 12 12 12 13 14 15 14 15 15 15 15 15 15 15 14 14 13 12 12 13 13 14 14 15 16 16
10 10 10 10 10 10 10 10 10 11 10 11 10 10 9 9 10 10 11 11 11 11 12 12 13 13 13 12 14 14 14 14 14 14 14 14 13 13 13 12 12 13 13 13 15 16 15
9 10 10 10 10 10 9 10 10 10 10 10 10 10 10 9 9 10 10 11 11 11 11 11 12 12 13 14 14 14 14 14 14 14 14 13 13 13 13 11 13 13 12 11 14 14 15
9 10 10 9 10 9 10 9 10 10 10 10 10 10 10 10 10 10 10 10 11 11 11 11 11 12 13 14 14 15 14 14 14 14 14 13 13 13 13 12 12 11 11 11 14 14 13
9 9 9 8 10 9 9 9 9 9 10 10 10 10 10 9 10 9 10 10 11 11 11 11 11 11 13 14 15 15 15 15 14 14 14 13 13 12 12 9 8 9 10 12 12 14 15
7 7 8 8 8 9 9 9 9 8 9 9 9 9 9 10 10 9 9 10 10 10 11 11 10 10 14 14 14 14 15 14 13 13 14 13 12 9 7 8 10 12 11 11 10 12 13
4 4 5 8 7 9 9 8 8 9 8 9 9 9 9 9 9 9 10 10 11 10 9 12 12 13 14 14 13 14 14 13 13 13 11 11 9 9 9 9 11 10 10 9 10 11 13
3 3 3 4 6 7 8 8 7 8 8 8 9 9 9 9 9 9 9 10 10 10 9 12 12 11 12 12 12 13 13 13 12 11 11 9 8 11 11 11 10 9 9 9 10 11 13
3 3 3 2 4 6 7 8 7 7 8 8 8 8 8 8 9 9 9 9 10 9 8 10 11 10 12 12 10 12 12 13 12 11 10 10 11 13 12 11 11 10 10 10 11 12 12
2 2 2 2 3 5 6 6 6 6 7 7 7 7 7 7 7 8 9 9 10 9 5 9 10 11 12 12 12 13 12 13 11 11 10 10 11 11 11 11 11 9 11 12 11 10 9
2 1 1 1 2 2 3 4 5 6 6 7 7 7 6 6 7 8 8 9 9 9 7 12 12 13 13 13 13 12 13 13 10 11 11 10 11 10 10 11 12 11 13 12 12 10 9
2 2 1 1 1 1 1 3 3 5 6 6 6 6 6 6 7 7 8 9 9 4 6 11 12 12 12 12 12 12 13 13 12 11 10 9 11 11 10 11 11 12 12 11 9 8 6
2 1 1 1 1 1 1 2 2 3 5 6 5 5 6 6 7 7 8 8 4 4 10 11 11 12 11 11 11 11 11 10 9 9 9 9 10 11 12 11 11 12 10 7 7 5 7
2 2 1 1 1 1 1 1 2 2 3 5 5 5 5 6 7 7 7 5 3 7 8 10 11 11 10 10 10 10 9 8 9 9 7 7 7 12 12 12 11 10 10 7 8 6 7
2 1 1 2 1 1 1 1 1 2 2 2 4 4 5 5 6 7 7 5 4 6 10 9 10 9 9 10 9 9 8 8 9 8 8 8 8 10 11 12 12 11 10 11 9 8 5
1 1 1 1 1 1 1 1 1 1 2 2 3 2 3 4 5 6 4 4 5 7 8 9 9 9 8 8 9 9 9 10 10 9 10 9 6 10 11 11 12 12 12 8 6 6 7
1 1 1 1 1 1 1 1 1 1 1 1 1 2 2 3 4 4 4 5 5 8 8 8 7 8 8 7 8 8 9 10 9 9 9 8 5 8 10 10 9 9 9 9 8 6 5
1 1 1 1 1 1 1 1 1 1 1 1 1 -1 2 2 2 2 3 3 5 6 7 7 8 7 7 7 7 4 7 8 10 9 9 9 5 5 8 10 10 9 9 9 6 8 5
0 0 0 0 0 0 1 1 1 1 1 1 1 1 2 2 1 2 1 3 4 5 6 7 7 7 6 4 4 5 6 8 9 8 7 7 5 4 7 8 8 7 7 6 4 4 5
-0 0 -0 -0 0 0 0 1 1 1 1 1 2 0 1 1 1 1 1 2 3 5 5 5 6 6 6 5 5 4 6 7 8 8 8 8 5 6 6 6 6 6 8 8 6 4 4
-0 -0 -0 -0 -0 -0 -0 0 0 1 1 1 2 -1 2 1 1 1 2 2 2 3 4 5 5 5 5 3 4 4 5 6 8 8 7 6 3 4 5 6 6 6 6 6 6 6 4
-0 -1 -0 -0 -0 -0 -0 0 -0 0 0 1 1 -0 0 -0 2 2 2 1 2 3 3 4 3 4 4 3 4 4 5 5 5 6 5 5 1 1 1 5 5 5 5 5 5 5 5
-1 -1 -1 -1 -1 -0 -1 -1 -0 -0 -0 1 0 2 2 0 0 1 2 1 2 3 3 4 4 3 3 3 5 6 6 7 6 5 4 4 2 2 4 5 5 4 4 4 5 5 6
-2 -1 -1 -1 -1 -1 -1 -1 -1 0 -0 -0 0 0 2 -1 0 1 2 2 1 2 2 4 4 2 4 5 6 5 5 6 5 5 6 3 3 2 4 4 4 4 5 5 5 6 5
-2 -2 -2 -2 -1 -1 -1 -1 -1 0 0 -1 -0 0 1 -0 1 1 1 1 1 2 2 2 3 4 4 5 3 4 3 4 4 4 4 4 3 3 3 4 5 5 5 5 5 5 3
-3 -2 -2 -2 -2 -2 -1 -1 -1 -1 -1 -1 -0 -0 0 1 0 2 1 1 -1 -1 0 2 3 4 4 3 2 3 3 4 4 4 5 5 4 4 3 4 4 4 4 4 5 4 2
-3 -3 -3 -3 -2 -2 -2 -2 -2 -1 -1 -1 -1 -0 -0 -0 2 3 1 1 2 1 -0 2 3 2 3 1 2 2 2 4 3 4 5 3 3 3 3 4 4 4 4 4 4 3 2
-4 -3 -3 -3 -3 -2 -2 -2 -2 -2 -2 -2 -1 -0 -1 -1 1 2 3 3 3 3 0 3 1 2 1 1 1 2 1 2 3 5 5 5 4 3 3 3 3 2 3 3 1 -0 0
-4 -4 -3 -3 -3 -3 -3 -2 -2 -2 -2 -2 -2 -1 -1 -1 -1 0 2 3 3 3 3 2 2 2 2 1 -0 0 1 1 3 3 6 4 4 4 4 3 0 1 1 1 2 2 -0

GFSGBSN_850_temp_138.txt.gz
Temp
11 11 11 11 11 11 11 10 11 11 11 11 11 11 10 10 9 10 10 11 11 12 12 12 13 14 14 14 15 15 15 14 14 14 15 14 14 13 11 11 12 12 12 14 15 15 14
10 10 10 10 10 10 10 11 11 10 11 10 10 10 10 10 9 9 10 10 10 11 12 12 13 13 13 13 15 15 15 14 14 15 14 14 13 13 12 12 11 12 12 12 14 14 14
10 10 10 10 10 10 10 10 10 11 11 10 10 10 10 10 9 9 9 9 10 10 11 12 12 12 13 14 15 14 15 14 14 14 14 14 13 13 13 11 12 12 10 10 14 13 13
9 9 10 10 10 9 10 11 10 11 10 10 10 10 10 10 10 9 9 10 10 10 11 11 12 12 13 14 14 14 14 14 14 14 14 13 13 13 12 12 11 11 10 10 13 12 14
8 9 9 9 10 9 10 10 11 11 10 10 10 10 10 10 9 9 10 10 10 10 10 11 11 11 13 14 15 15 15 15 14 14 14 13 13 12 11 9 9 8 10 11 11 12 14
8 8 9 9 8 9 10 9 10 11 9 10 9 9 10 9 9 10 10 10 10 10 10 10 11 10 13 14 15 14 14 14 14 14 13 13 12 9 7 8 10 11 10 10 10 11 11
5 6 7 7 7 8 9 9 9 10 10 9 9 9 9 9 8 9 9 9 10 10 9 12 12 13 14 14 14 14 13 13 13 13 11 11 9 9 10 9 11 10 9 8 9 10 11
4 4 4 5 7 7 8 8 8 8 9 9 8 9 8 9 8 9 9 9 10 9 9 12 12 12 13 12 12 12 13 13 12 11 10 9 9 11 11 10 9 9 9 8 9 10 10
3 3 3 3 3 5 7 7 8 8 8 9 9 8 8 8 8 8 9 9 9 9 8 11 11 11 11 12 10 11 12 12 12 10 10 9 11 11 11 10 10 9 9 9 10 11 10
3 3 3 3 3 3 3 4 6 7 7 8 8 7 7 7 7 8 8 9 9 9 5 8 9 11 11 11 11 12 12 12 11 10 10 9 10 11 11 10 10 9 10 10 10 10 8
3 2 2 2 2 2 2 2 3 4 6 7 7 7 6 7 7 8 8 8 9 9 7 11 10 12 12 12 12 12 12 12 10 10 10 10 11 10 9 10 11 10 12 11 11 9 8
2 2 2 2 1 1 1 2 3 4 5 6 6 6 6 6 7 7 8 9 9 4 6 11 12 11 11 12 12 12 12 12 11 10 9 9 10 10 9 10 10 11 11 10 7 7 6
2 2 2 2 1 1 1 1 3 4 5 5 5 5 6 6 6 7 8 8 4 3 9 10 11 11 11 11 11 11 11 10 9 9 8 8 9 10 10 10 10 11 8 6 6 5 7
2 2 2 1 1 1 1 1 2 1 3 5 5 5 5 6 6 7 7 6 4 7 7 10 10 10 10 10 10 10 9 8 9 9 7 7 7 11 11 11 11 10 8 7 7 5 6
2 2 2 2 1 1 1 0 1 1 2 4 4 5 5 5 6 6 7 5 5 5 8 9 10 9 9 9 8 9 8 7 9 8 7 7 7 9 11 11 11 11 9 10 8 7 3
2 2 2 2 2 1 1 1 1 1 2 3 3 4 4 5 5 6 4 6 5 6 7 9 9 8 7 8 8 9 9 9 9 9 9 8 5 9 10 11 11 11 10 6 4 6 7
1 2 2 2 1 2 1 1 1 1 2 2 2 3 3 5 4 5 4 5 5 7 7 7 7 7 7 6 8 8 9 9 9 9 8 7 4 7 9 9 8 8 8 7 7 7 5
1 2 1 2 1 1 1 1 1 1 1 1 1 -1 2 4 3 2 3 3 5 5 7 7 7 7 7 6 7 3 7 8 9 9 9 8 5 5 7 8 8 8 8 6 4 6 5
1 1 1 1 1 1 1 1 1 1 1 1 1 1 1 3 2 2 2 3 4 5 6 6 6 7 5 4 4 5 6 8 8 8 8 7 5 4 7 7 7 7 6 5 5 3 3
0 1 1 1 1 1 1 1 1 1 1 1 1 1 1 2 1 1 2 2 3 4 4 5 5 6 5 5 5 4 5 7 8 8 8 7 5 6 5 4 5 5 7 7 6 4 3
-0 0 0 -0 0 1 1 1 1 1 1 1 2 -0 1 1 1 1 2 2 2 3 4 4 5 4 5 3 4 4 4 5 7 8 7 6 3 4 4 5 5 5 4 5 5 5 4
-0 -0 -0 -0 -0 0 0 1 0 1 1 1 2 -0 0 -0 2 2 2 1 2 3 3 3 3 4 3 3 4 4 5 5 5 6 5 4 1 0 0 4 4 4 3 4 5 5 5
-1 -1 -1 -1 -0 -0 -0 -0 0 0 0 1 0 1 2 0 1 2 2 1 2 3 3 4 4 3 3 3 5 5 6 5 5 5 4 4 3 1 4 4 4 3 1 3 4 4 5
-1 -2 -2 -0 -0 -0 -1 -1 -0 0 -0 -0 0 1 2 -2 0 2 2 2 1 2 3 3 3 2 4 4 5 5 4 4 3 4 5 3 2 3 3 3 2 3 5 5 4 5 5
-1 -1 -1 -1 -1 -1 -1 -1 -1 -0 -0 -0 -0 -0 0 -2 0 1 1 1 2 2 2 2 3 3 4 3 2 3 2 4 3 3 3 3 2 3 3 4 4 5 5 4 4 5 4
-2 -1 -1 -1 -2 -1 -1 -1 -1 -1 -1 -1 -1 -1 -0 0 -1 2 1 1 -1 -1 -0 1 2 3 3 1 -0 3 3 4 4 4 4 3 3 2 1 3 3 4 4 4 4 4 2
-2 -2 -1 -1 -0 -1 -1 -2 -2 -1 -1 -2 -1 -1 -1 -1 1 2 0 0 2 0 -0 1 2 1 2 0 1 2 3 4 3 4 4 2 1 2 2 3 4 4 4 4 4 3 1
-2 -2 -2 -2 -1 -1 -1 -1 -1 -1 -1 -1 -2 -1 -1 -1 0 2 2 2 1 2 -0 3 1 1 0 2 0 0 1 2 2 4 4 3 3 2 3 3 4 3 2 3 2 1 1
-3 -3 -3 -3 -2 -2 -2 -1 -1 -1 -1 -2 -1 -2 -2 -1 -1 -1 0 1 2 4 3 2 2 1 1 1 -0 -0 0 -0 2 -0 4 2 3 3 4 3 1 2 1 2 1 1 1

GFSGBSN_850_temp_141.txt.gz
Temp
11 11 11 11 11 11 11 11 11 11 11 11 11 11 11 11 10 9 10 11 11 11 11 12 13 13 14 14 15 15 14 14 14 15 15 15 14 13 13 12 12 13 13 13 14 14 13
10 11 11 10 10 11 11 10 10 11 11 11 11 11 11 10 10 9 9 10 11 11 11 11 12 13 13 12 15 14 14 14 14 14 14 14 13 13 12 12 13 11 11 12 12 13 12
10 10 10 10 10 10 10 11 11 10 10 11 11 11 10 10 10 10 9 10 10 11 11 11 12 12 12 14 15 14 14 14 14 14 14 14 14 13 12 12 12 11 13 13 13 13 14
10 10 10 10 10 9 9 10 10 10 10 11 11 11 10 10 9 9 10 10 10 11 11 11 11 11 12 14 14 15 14 14 14 14 14 14 13 13 12 12 11 12 12 14 15 14 13
8 8 9 9 9 9 9 10 9 10 10 10 10 11 10 10 10 9 10 11 11 11 11 11 11 11 12 14 14 15 15 14 14 13 14 14 13 12 11 12 12 11 14 13 14 13 14
6 7 7 8 8 9 9 10 9 10 9 10 10 10 10 9 9 9 10 10 11 11 11 11 11 10 13 14 15 14 14 14 13 13 13 13 12 12 11 13 14 12 12 12 12 14 13
6 5 6 7 7 8 8 9 9 9 9 10 10 9 9 9 9 9 9 10 10 10 10 12 12 12 13 14 14 13 13 13 13 13 12 10 12 13 12 11 12 11 11 11 11 12 11
4 4 4 5 4 6 8 8 8 8 8 8 9 9 9 8 8 8 8 9 10 10 9 11 12 12 12 12 13 12 12 13 12 12 10 11 12 12 11 11 11 10 10 11 11 12 11
4 4 4 4 4 4 6 7 8 7 8 8 8 8 8 8 8 8 8 9 9 9 8 10 11 11 11 11 11 11 11 12 12 11 11 11 12 11 11 11 11 10 10 11 11 12 12
3 3 3 4 3 3 3 5 5 7 7 8 8 8 8 8 7 7 7 8 9 9 7 9 9 10 10 11 11 11 11 12 11 11 10 10 11 11 11 11 11 10 11 12 11 11 12
3 3 3 3 3 3 3 3 4 6 6 7 7 7 7 7 7 7 8 8 9 9 9 10 10 11 11 11 12 11 11 12 11 11 11 11 11 11 10 11 11 12 11 11 11 11 10
3 3 3 2 3 3 2 2 3 3 6 7 6 6 6 6 6 7 8 8 9 8 8 10 11 11 11 11 11 11 11 12 11 10 10 10 10 11 11 11 10 11 11 11 9 10 10
3 3 2 2 2 2 2 1 2 3 3 5 5 6 5 6 6 7 8 8 7 6 9 10 10 11 10 10 10 11 11 10 10 10 9 10 10 10 10 11 11 11 11 11 10 10 11
2 2 3 2 2 2 1 1 1 2 2 3 4 4 4 5 6 7 7 7 6 8 7 10 10 10 10 10 10 9 9 10 9 9 8 9 10 10 11 12 11 11 11 10 8 9 10
2 2 2 2 2 2 1 1 1 1 2 3 3 5 5 5 5 6 7 6 7 7 8 9 10 9 9 9 9 9 9 9 9 9 10 8 9 10 11 11 11 11 10 11 10 10 8
2 2 2 2 2 2 1 1 1 1 1 3 3 4 4 4 5 6 5 7 6 6 7 8 9 8 8 9 9 9 9 9 9 9 9 9 8 9 10 10 11 11 11 9 9 7 8
2 2 2 2 2 2 1 1 1 1 1 2 3 4 4 4 4 5 5 6 6 6 7 7 7 8 7 7 8 8 9 9 9 8 8 8 7 9 9 10 10 10 9 9 9 9 8
2 2 1 2 2 2 1 1 1 1 1 1 2 2 2 3 3 2 3 5 5 5 7 7 7 7 7 6 7 5 7 8 8 9 9 8 7 7 9 10 8 8 9 8 8 7 6
1 1 1 1 1 1 2 1 1 1 1 1 2 1 2 3 3 2 2 3 4 5 6 6 6 7 5 5 5 5 6 7 8 8 8 8 7 7 8 8 9 8 8 7 6 5 5
1 1 1 0 1 1 2 1 1 1 1 1 2 1 1 2 2 4 3 3 3 4 4 5 5 6 5 5 5 5 5 7 7 8 8 8 7 7 6 7 7 7 7 8 7 5 6
0 0 1 0 1 1 1 1 1 1 1 1 1 0 2 1 1 1 3 3 3 3 4 4 5 5 5 4 5 4 4 5 6 7 7 7 6 6 6 7 6 6 6 6 6 6 6
-0 -0 0 0 0 1 1 1 1 1 0 1 1 0 0 1 3 2 2 2 3 3 4 4 4 4 4 4 5 4 5 5 5 6 6 4 5 3 3 5 6 5 4 4 6 6 6
-0 0 -0 -0 -0 -0 1 1 1 0 0 1 0 2 2 1 2 2 2 1 2 3 3 4 4 4 4 4 4 5 5 5 5 5 5 5 5 4 5 6 5 5 4 4 6 6 6
-0 1 -0 -0 -0 -0 -0 0 1 1 0 0 0 2 2 0 2 2 3 3 2 3 3 2 3 3 3 4 4 4 4 3 3 3 4 4 4 4 5 5 4 6 6 6 6 7 7
-0 1 -0 -0 -0 -0 -0 -0 -0 -0 -0 -0 0 0 2 -1 1 1 2 2 2 2 2 2 3 3 3 3 3 3 4 4 4 4 4 4 5 4 4 5 6 6 7 6 5 7 8
-1 -1 -1 -1 -1 -1 -1 -1 -0 -1 -0 -0 -0 -1 -0 0 0 2 1 1 1 1 1 1 2 2 2 2 3 2 3 4 5 5 3 3 5 4 3 4 4 6 6 4 5 6 3
-1 -1 -1 -1 -1 -1 -1 -1 -1 -0 -1 -1 -1 -1 -1 -1 1 1 1 1 2 0 1 1 1 0 2 1 2 2 4 4 4 5 4 3 3 3 4 3 5 6 5 4 5 6 2
-2 -2 -2 -2 -2 -1 -1 -1 -1 -1 -0 -1 -1 -2 -1 -1 -0 1 1 2 1 1 2 1 2 0 0 2 3 3 2 4 4 5 5 6 5 3 4 3 4 4 4 5 3 2 2
-3 -3 -3 -2 -2 -2 -1 -0 -0 -1 -0 -2 -1 -1 -2 -2 -1 -1 0 2 2 2 2 2 2 1 1 2 1 2 2 2 4 4 5 4 6 5 5 6 4 4 4 5 5 3 2